Time,TemperatureF,DewpointF,PressureIn,WindDirection,WindDirectionDegrees,WindSpeedMPH,WindSpeedGustMPH,Humidity,HourlyPrecipIn,Conditions,Clouds,dailyrainin,SoftwareType,DateUTC
2013-01-05 00:01:00,51.8,33.8,30.43,SW,225,3.0,6.0,50,0.00,,,0.00,WUHU21623XXSP,2013-01-05 06:01:00,
2013-01-05 00:02:00,51.8,33.8,30.43,SW,225,3.0,6.0,50,0.00,,,0.00,WUHU21623XXSP,2013-01-05 06:02:00,
2013-01-05 00:08:00,51.8,33.8,30.43,SW,225,3.0,4.0,50,0.00,,,0.00,WUHU21623XXSP,2013-01-05 06:08:00,
2013-01-05 00:10:00,51.8,33.8,30.43,South,180,0.0,0.0,50,0.00,,,0.00,WUHU21623XXSP,2013-01-05 06:10:00,
2013-01-05 00:13:00,51.4,33.5,30.43,SSW,199,3.0,5.0,50,0.00,,,0.00,WUHU21623XXSP,2013-01-05 06:13:00,
2013-01-05 00:15:00,51.4,33.5,30.43,South,189,3.0,5.0,50,0.00,,,0.00,WUHU21623XXSP,2013-01-05 06:15:00,
2013-01-05 00:19:00,51.3,33.8,30.43,SW,225,8.0,8.0,51,0.00,,,0.00,WUHU21623XXSP,2013-01-05 06:19:00,
2013-01-05 00:20:00,51.3,33.8,30.43,SSW,204,4.0,8.0,51,0.00,,,0.00,WUHU21623XXSP,2013-01-05 06:20:00,
2013-01-05 00:24:00,51.1,33.6,30.43,South,180,5.0,8.0,51,0.00,,,0.00,WUHU21623XXSP,2013-01-05 06:24:00,
2013-01-05 00:25:00,51.1,33.6,30.43,SSW,201,3.0,8.0,51,0.00,,,0.00,WUHU21623XXSP,2013-01-05 06:25:00,
2013-01-05 00:29:00,51.1,33.6,30.43,SW,225,2.0,7.0,51,0.00,,,0.00,WUHU21623XXSP,2013-01-05 06:29:00,
2013-01-05 00:30:00,50.9,33.4,30.43,South,188,3.0,7.0,51,0.00,,,0.00,WUHU21623XXSP,2013-01-05 06:30:00,
2013-01-05 00:34:00,50.9,33.9,30.43,SSW,199,4.0,8.0,52,0.00,,,0.00,WUHU21623XXSP,2013-01-05 06:34:00,
2013-01-05 00:35:00,50.9,33.9,30.43,SW,225,9.0,9.0,52,0.00,,,0.00,WUHU21623XXSP,2013-01-05 06:35:00,
2013-01-05 00:36:00,51.1,34.1,30.43,SW,223,4.0,9.0,52,0.00,,,0.00,WUHU21623XXSP,2013-01-05 06:36:00,
2013-01-05 00:40:00,50.9,33.9,30.43,South,191,3.0,9.0,52,0.00,,,0.00,WUHU21623XXSP,2013-01-05 06:40:00,
2013-01-05 00:41:00,50.9,33.9,30.43,South,187,4.0,9.0,52,0.00,,,0.00,WUHU21623XXSP,2013-01-05 06:41:00,
2013-01-05 00:45:00,50.7,33.7,30.43,SW,225,4.0,6.0,52,0.00,,,0.00,WUHU21623XXSP,2013-01-05 06:45:00,
2013-01-05 00:46:00,50.7,33.7,30.43,SSW,202,3.0,6.0,52,0.00,,,0.00,WUHU21623XXSP,2013-01-05 06:46:00,
2013-01-05 00:50:00,50.7,33.7,30.43,SW,224,4.0,7.0,52,0.00,,,0.00,WUHU21623XXSP,2013-01-05 06:50:00,
2013-01-05 00:51:00,50.7,33.7,30.43,SW,225,9.0,9.0,52,0.00,,,0.00,WUHU21623XXSP,2013-01-05 06:51:00,
2013-01-05 00:54:00,50.5,34.0,30.42,SSW,202,4.0,6.0,53,0.00,,,0.00,WUHU21623XXSP,2013-01-05 06:54:00,
2013-01-05 00:55:00,50.5,34.0,30.43,SSW,194,4.0,9.0,53,0.00,,,0.00,WUHU21623XXSP,2013-01-05 06:55:00,
2013-01-05 00:56:00,50.5,34.0,30.42,SSE,157,6.0,9.0,53,0.00,,,0.00,WUHU21623XXSP,2013-01-05 06:56:00,
2013-01-05 01:00:00,50.5,34.0,30.42,SSW,202,4.0,9.0,53,0.00,,,0.00,WUHU21623XXSP,2013-01-05 07:00:00,
2013-01-05 01:01:00,50.5,34.0,30.42,SSW,202,4.0,6.0,53,0.00,,,0.00,WUHU21623XXSP,2013-01-05 07:01:00,
2013-01-05 01:10:00,50.5,34.0,30.42,SSW,202,3.0,3.0,53,0.00,,,0.00,WUHU21623XXSP,2013-01-05 07:10:00,
2013-01-05 01:15:00,50.5,34.0,30.43,West,270,3.0,9.0,53,0.00,,,0.00,WUHU21623XXSP,2013-01-05 07:15:00,
2013-01-05 01:20:00,50.4,34.3,30.43,SW,228,5.0,9.0,54,0.00,,,0.00,WUHU21623XXSP,2013-01-05 07:20:00,
2013-01-05 01:21:00,50.4,34.3,30.43,SW,234,5.0,9.0,54,0.00,,,0.00,WUHU21623XXSP,2013-01-05 07:21:00,
2013-01-05 01:25:00,50.2,34.6,30.43,WSW,243,4.0,8.0,55,0.00,,,0.00,WUHU21623XXSP,2013-01-05 07:25:00,
2013-01-05 01:30:00,49.8,34.7,30.43,WSW,242,5.0,8.0,56,0.00,,,0.00,WUHU21623XXSP,2013-01-05 07:30:00,
2013-01-05 01:31:00,49.8,34.7,30.43,WSW,243,4.0,8.0,56,0.00,,,0.00,WUHU21623XXSP,2013-01-05 07:31:00,
2013-01-05 01:35:00,49.6,34.5,30.43,SW,225,10.0,13.0,56,0.00,,,0.00,WUHU21623XXSP,2013-01-05 07:35:00,
2013-01-05 01:36:00,49.6,34.5,30.43,SW,225,9.0,13.0,56,0.00,,,0.00,WUHU21623XXSP,2013-01-05 07:36:00,
2013-01-05 01:40:00,49.5,34.8,30.43,SW,235,7.0,13.0,57,0.00,,,0.00,WUHU21623XXSP,2013-01-05 07:40:00,
2013-01-05 01:41:00,49.5,34.8,30.43,WSW,237,7.0,13.0,57,0.00,,,0.00,WUHU21623XXSP,2013-01-05 07:41:00,
2013-01-05 01:45:00,49.3,34.6,30.43,SSW,202,7.0,13.0,57,0.00,,,0.00,WUHU21623XXSP,2013-01-05 07:45:00,
2013-01-05 01:46:00,49.1,34.5,30.43,WSW,247,8.0,13.0,57,0.00,,,0.00,WUHU21623XXSP,2013-01-05 07:46:00,
2013-01-05 01:50:00,48.9,34.3,30.43,SW,225,7.0,13.0,57,0.00,,,0.00,WUHU21623XXSP,2013-01-05 07:50:00,
2013-01-05 01:51:00,48.9,34.3,30.43,SW,221,8.0,13.0,57,0.00,,,0.00,WUHU21623XXSP,2013-01-05 07:51:00,
2013-01-05 01:54:00,48.7,34.6,30.43,SW,225,7.0,10.0,58,0.00,,,0.00,WUHU21623XXSP,2013-01-05 07:54:00,
2013-01-05 01:56:00,48.7,34.6,30.43,WSW,247,6.0,11.0,58,0.00,,,0.00,WUHU21623XXSP,2013-01-05 07:56:00,
2013-01-05 01:57:00,48.7,34.6,30.43,SW,225,7.0,11.0,58,0.00,,,0.00,WUHU21623XXSP,2013-01-05 07:57:00,
2013-01-05 02:01:00,48.7,34.6,30.43,SW,225,7.0,10.0,58,0.00,,,0.00,WUHU21623XXSP,2013-01-05 08:01:00,
2013-01-05 02:02:00,48.7,34.6,30.43,SW,225,7.0,10.0,58,0.00,,,0.00,WUHU21623XXSP,2013-01-05 08:02:00,
2013-01-05 02:10:00,48.7,34.6,30.43,WSW,247,8.0,8.0,58,0.00,,,0.00,WUHU21623XXSP,2013-01-05 08:10:00,
2013-01-05 02:15:00,48.6,34.9,30.42,SW,225,7.0,8.0,59,0.00,,,0.00,WUHU21623XXSP,2013-01-05 08:15:00,
2013-01-05 02:16:00,48.6,34.9,30.42,WSW,247,5.0,8.0,59,0.00,,,0.00,WUHU21623XXSP,2013-01-05 08:16:00,
2013-01-05 02:20:00,48.6,34.9,30.42,West,270,4.0,9.0,59,0.00,,,0.00,WUHU21623XXSP,2013-01-05 08:20:00,
2013-01-05 02:21:00,48.6,34.9,30.42,WSW,247,3.0,9.0,59,0.00,,,0.00,WUHU21623XXSP,2013-01-05 08:21:00,
2013-01-05 02:25:00,48.6,34.9,30.42,WSW,248,3.0,9.0,59,0.00,,,0.00,WUHU21623XXSP,2013-01-05 08:25:00,
2013-01-05 02:26:00,48.6,34.9,30.42,WSW,247,3.0,9.0,59,0.00,,,0.00,WUHU21623XXSP,2013-01-05 08:26:00,
2013-01-05 02:30:00,48.4,34.8,30.42,West,268,4.0,8.0,59,0.00,,,0.00,WUHU21623XXSP,2013-01-05 08:30:00,
2013-01-05 02:31:00,48.4,34.8,30.42,WNW,292,5.0,8.0,59,0.00,,,0.00,WUHU21623XXSP,2013-01-05 08:31:00,
2013-01-05 02:35:00,48.2,34.6,30.42,WSW,249,4.0,8.0,59,0.00,,,0.00,WUHU21623XXSP,2013-01-05 08:35:00,
2013-01-05 02:36:00,48.2,34.6,30.42,WSW,247,5.0,8.0,59,0.00,,,0.00,WUHU21623XXSP,2013-01-05 08:36:00,
2013-01-05 02:40:00,48.0,34.4,30.42,WNW,292,6.0,10.0,59,0.00,,,0.00,WUHU21623XXSP,2013-01-05 08:40:00,
2013-01-05 02:41:00,48.0,34.4,30.42,WSW,256,5.0,10.0,59,0.00,,,0.00,WUHU21623XXSP,2013-01-05 08:41:00,
2013-01-05 02:45:00,48.0,34.4,30.42,SW,225,10.0,10.0,59,0.00,,,0.00,WUHU21623XXSP,2013-01-05 08:45:00,
2013-01-05 02:46:00,48.0,34.4,30.42,WSW,246,4.0,10.0,59,0.00,,,0.00,WUHU21623XXSP,2013-01-05 08:46:00,
2013-01-05 02:50:00,47.8,34.2,30.42,WSW,238,4.0,10.0,59,0.00,,,0.00,WUHU21623XXSP,2013-01-05 08:50:00,
2013-01-05 02:51:00,47.8,34.2,30.42,WSW,240,4.0,10.0,59,0.00,,,0.00,WUHU21623XXSP,2013-01-05 08:51:00,
2013-01-05 02:52:00,47.8,34.2,30.42,WSW,247,7.0,10.0,59,0.00,,,0.00,WUHU21623XXSP,2013-01-05 08:52:00,
2013-01-05 02:54:00,47.8,34.7,30.42,West,270,8.0,8.0,60,0.00,,,0.00,WUHU21623XXSP,2013-01-05 08:54:00,
2013-01-05 02:55:00,47.8,34.7,30.42,WSW,248,3.0,7.0,60,0.00,,,0.00,WUHU21623XXSP,2013-01-05 08:55:00,
2013-01-05 02:56:00,47.8,34.7,30.42,SW,234,3.0,7.0,60,0.00,,,0.00,WUHU21623XXSP,2013-01-05 08:56:00,
2013-01-05 02:57:00,47.8,34.7,30.42,WSW,247,5.0,7.0,60,0.00,,,0.00,WUHU21623XXSP,2013-01-05 08:57:00,
2013-01-05 03:00:00,47.8,34.7,30.42,West,270,8.0,8.0,60,0.00,,,0.00,WUHU21623XXSP,2013-01-05 09:00:00,
2013-01-05 03:01:00,47.8,34.7,30.42,West,270,8.0,8.0,60,0.00,,,0.00,WUHU21623XXSP,2013-01-05 09:01:00,
2013-01-05 03:02:00,47.8,34.7,30.42,West,270,8.0,8.0,60,0.00,,,0.00,WUHU21623XXSP,2013-01-05 09:02:00,
2013-01-05 03:10:00,47.8,34.7,30.42,West,270,3.0,3.0,60,0.00,,,0.00,WUHU21623XXSP,2013-01-05 09:10:00,
2013-01-05 03:15:00,47.7,34.5,30.42,WSW,252,4.0,8.0,60,0.00,,,0.00,WUHU21623XXSP,2013-01-05 09:15:00,
2013-01-05 03:20:00,47.8,34.7,30.42,WSW,247,3.0,8.0,60,0.00,,,0.00,WUHU21623XXSP,2013-01-05 09:20:00,
2013-01-05 03:25:00,47.8,34.7,30.43,SW,221,4.0,6.0,60,0.00,,,0.00,WUHU21623XXSP,2013-01-05 09:25:00,
2013-01-05 03:26:00,48.0,34.9,30.43,WSW,247,6.0,6.0,60,0.00,,,0.00,WUHU21623XXSP,2013-01-05 09:26:00,
2013-01-05 03:30:00,48.0,34.4,30.43,SW,230,3.0,6.0,59,0.00,,,0.00,WUHU21623XXSP,2013-01-05 09:30:00,
2013-01-05 03:31:00,48.0,34.4,30.43,SW,226,3.0,6.0,59,0.00,,,0.00,WUHU21623XXSP,2013-01-05 09:31:00,
2013-01-05 03:35:00,48.0,34.4,30.43,SSW,202,5.0,6.0,59,0.00,,,0.00,WUHU21623XXSP,2013-01-05 09:35:00,
2013-01-05 03:36:00,48.2,34.4,30.43,SW,231,4.0,7.0,59,0.00,,,0.00,WUHU21623XXSP,2013-01-05 09:36:00,
2013-01-05 03:40:00,48.4,34.8,30.43,SW,225,5.0,7.0,59,0.00,,,0.00,WUHU21623XXSP,2013-01-05 09:40:00,
2013-01-05 03:41:00,48.2,34.6,30.43,SW,216,3.0,7.0,59,0.00,,,0.00,WUHU21623XXSP,2013-01-05 09:41:00,
2013-01-05 03:46:00,48.4,34.8,30.43,SSW,202,5.0,6.0,59,0.00,,,0.00,WUHU21623XXSP,2013-01-05 09:46:00,
2013-01-05 03:51:00,48.6,34.9,30.42,SSW,200,3.0,5.0,59,0.00,,,0.00,WUHU21623XXSP,2013-01-05 09:51:00,
2013-01-05 03:54:00,48.7,35.1,30.42,SSW,202,5.0,5.0,59,0.00,,,0.00,WUHU21623XXSP,2013-01-05 09:54:00,
2013-01-05 03:56:00,48.7,35.1,30.42,SSW,194,3.0,4.0,59,0.00,,,0.00,WUHU21623XXSP,2013-01-05 09:56:00,
2013-01-05 04:01:00,48.7,35.1,30.42,SSW,202,5.0,5.0,59,0.00,,,0.00,WUHU21623XXSP,2013-01-05 10:01:00,
2013-01-05 04:02:00,48.7,35.1,30.42,SSW,202,5.0,5.0,59,0.00,,,0.00,WUHU21623XXSP,2013-01-05 10:02:00,
2013-01-05 04:10:00,48.7,35.1,30.42,SSW,202,5.0,5.0,59,0.00,,,0.00,WUHU21623XXSP,2013-01-05 10:10:00,
2013-01-05 04:15:00,48.9,35.2,30.42,South,177,3.0,5.0,59,0.00,,,0.00,WUHU21623XXSP,2013-01-05 10:15:00,
2013-01-05 04:20:00,49.1,35.4,30.42,South,180,3.0,4.0,59,0.00,,,0.00,WUHU21623XXSP,2013-01-05 10:20:00,
2013-01-05 04:25:00,49.1,35.4,30.41,SSE,157,3.0,4.0,59,0.00,,,0.00,WUHU21623XXSP,2013-01-05 10:25:00,
2013-01-05 04:30:00,49.3,35.6,30.41,South,180,3.0,4.0,59,0.00,,,0.00,WUHU21623XXSP,2013-01-05 10:30:00,
2013-01-05 04:35:00,49.6,35.9,30.41,South,180,4.0,5.0,59,0.00,,,0.00,WUHU21623XXSP,2013-01-05 10:35:00,
2013-01-05 04:40:00,49.6,35.4,30.41,ESE,112,4.0,7.0,58,0.00,,,0.00,WUHU21623XXSP,2013-01-05 10:40:00,
2013-01-05 04:41:00,49.6,35.4,30.41,SE,137,4.0,7.0,58,0.00,,,0.00,WUHU21623XXSP,2013-01-05 10:41:00,
2013-01-05 04:45:00,49.6,35.4,30.41,South,180,4.0,7.0,58,0.00,,,0.00,WUHU21623XXSP,2013-01-05 10:45:00,
2013-01-05 04:46:00,49.6,35.4,30.41,SSE,157,5.0,7.0,58,0.00,,,0.00,WUHU21623XXSP,2013-01-05 10:46:00,
2013-01-05 04:50:00,49.6,35.4,30.40,SSE,157,5.0,7.0,58,0.00,,,0.00,WUHU21623XXSP,2013-01-05 10:50:00,
2013-01-05 04:51:00,49.6,35.4,30.40,SE,135,5.0,7.0,58,0.00,,,0.00,WUHU21623XXSP,2013-01-05 10:51:00,
2013-01-05 04:54:00,49.5,35.3,30.39,SSE,157,8.0,8.0,58,0.00,,,0.00,WUHU21623XXSP,2013-01-05 10:54:00,
2013-01-05 04:55:00,49.6,35.4,30.40,SE,135,4.0,6.0,58,0.00,,,0.00,WUHU21623XXSP,2013-01-05 10:55:00,
2013-01-05 04:56:00,49.6,35.4,30.40,SSE,157,7.0,7.0,58,0.00,,,0.00,WUHU21623XXSP,2013-01-05 10:56:00,
2013-01-05 05:00:00,49.5,35.3,30.39,SSE,157,8.0,8.0,58,0.00,,,0.00,WUHU21623XXSP,2013-01-05 11:00:00,
2013-01-05 05:01:00,49.5,35.3,30.39,SSE,157,8.0,8.0,58,0.00,,,0.00,WUHU21623XXSP,2013-01-05 11:01:00,
2013-01-05 05:10:00,49.5,35.3,30.39,SE,135,9.0,9.0,58,0.00,,,0.00,WUHU21623XXSP,2013-01-05 11:10:00,
2013-01-05 05:15:00,49.1,35.4,30.40,South,180,8.0,11.0,59,0.00,,,0.00,WUHU21623XXSP,2013-01-05 11:15:00,
2013-01-05 05:20:00,49.1,35.4,30.40,SSE,150,4.0,11.0,59,0.00,,,0.00,WUHU21623XXSP,2013-01-05 11:20:00,
2013-01-05 05:25:00,49.1,35.4,30.39,SE,139,4.0,7.0,59,0.00,,,0.00,WUHU21623XXSP,2013-01-05 11:25:00,
2013-01-05 05:30:00,48.9,35.2,30.40,SSE,157,5.0,8.0,59,0.00,,,0.00,WUHU21623XXSP,2013-01-05 11:30:00,
2013-01-05 05:35:00,48.9,35.2,30.40,SSE,158,2.0,8.0,59,0.00,,,0.00,WUHU21623XXSP,2013-01-05 11:35:00,
2013-01-05 05:40:00,48.9,35.2,30.40,South,180,7.0,7.0,59,0.00,,,0.00,WUHU21623XXSP,2013-01-05 11:40:00,
2013-01-05 05:41:00,48.9,35.2,30.40,SSE,155,3.0,7.0,59,0.00,,,0.00,WUHU21623XXSP,2013-01-05 11:41:00,
2013-01-05 05:45:00,48.9,35.2,30.40,SSE,157,4.0,7.0,59,0.00,,,0.00,WUHU21623XXSP,2013-01-05 11:45:00,
2013-01-05 05:46:00,48.9,35.2,30.40,SSE,157,4.0,7.0,59,0.00,,,0.00,WUHU21623XXSP,2013-01-05 11:46:00,
2013-01-05 05:50:00,48.9,35.2,30.39,SSE,156,3.0,6.0,59,0.00,,,0.00,WUHU21623XXSP,2013-01-05 11:50:00,
2013-01-05 05:51:00,48.9,35.2,30.39,South,180,4.0,6.0,59,0.00,,,0.00,WUHU21623XXSP,2013-01-05 11:51:00,
2013-01-05 05:54:00,48.7,35.1,30.40,SE,135,0.0,6.0,59,0.00,,,0.00,WUHU21623XXSP,2013-01-05 11:54:00,
2013-01-05 05:55:00,48.9,35.2,30.39,SSE,148,4.0,8.0,59,0.00,,,0.00,WUHU21623XXSP,2013-01-05 11:55:00,
2013-01-05 05:56:00,48.9,35.2,30.39,SSE,151,4.0,8.0,59,0.00,,,0.00,WUHU21623XXSP,2013-01-05 11:56:00,
2013-01-05 06:01:00,48.7,35.1,30.40,SSE,164,1.0,8.0,59,0.00,,,0.00,WUHU21623XXSP,2013-01-05 12:01:00,
2013-01-05 06:10:00,48.7,35.1,30.40,SSE,157,2.0,2.0,59,0.00,,,0.00,WUHU21623XXSP,2013-01-05 12:10:00,
2013-01-05 06:15:00,48.7,35.1,30.40,SSW,202,0.0,2.0,59,0.00,,,0.00,WUHU21623XXSP,2013-01-05 12:15:00,
2013-01-05 06:20:00,48.7,35.1,30.40,SW,218,1.0,3.0,59,0.00,,,0.00,WUHU21623XXSP,2013-01-05 12:20:00,
2013-01-05 06:25:00,48.7,35.1,30.40,SSW,202,0.0,3.0,59,0.00,,,0.00,WUHU21623XXSP,2013-01-05 12:25:00,
2013-01-05 06:30:00,48.7,35.1,30.40,SW,225,3.0,3.0,59,0.00,,,0.00,WUHU21623XXSP,2013-01-05 12:30:00,
2013-01-05 06:35:00,48.6,34.9,30.41,SSW,210,2.0,3.0,59,0.00,,,0.00,WUHU21623XXSP,2013-01-05 12:35:00,
2013-01-05 06:40:00,48.4,34.8,30.41,SSW,202,2.0,3.0,59,0.00,,,0.00,WUHU21623XXSP,2013-01-05 12:40:00,
2013-01-05 06:41:00,48.4,34.8,30.41,SSW,202,2.0,3.0,59,0.00,,,0.00,WUHU21623XXSP,2013-01-05 12:41:00,
2013-01-05 06:45:00,48.4,34.8,30.41,SSW,202,2.0,3.0,59,0.00,,,0.00,WUHU21623XXSP,2013-01-05 12:45:00,
2013-01-05 06:46:00,48.4,34.8,30.41,SSW,202,2.0,3.0,59,0.00,,,0.00,WUHU21623XXSP,2013-01-05 12:46:00,
2013-01-05 06:50:00,48.4,34.8,30.41,SSW,202,2.0,4.0,59,0.00,,,0.00,WUHU21623XXSP,2013-01-05 12:50:00,
2013-01-05 06:51:00,48.4,34.8,30.41,SW,216,2.0,4.0,59,0.00,,,0.00,WUHU21623XXSP,2013-01-05 12:51:00,
2013-01-05 06:55:00,48.2,34.6,30.40,SSW,202,0.0,4.0,59,0.00,,,0.00,WUHU21623XXSP,2013-01-05 12:55:00,
2013-01-05 06:56:00,48.2,34.6,30.40,South,180,0.0,4.0,59,0.00,,,0.00,WUHU21623XXSP,2013-01-05 12:56:00,
2013-01-05 07:00:00,48.0,34.4,30.41,SE,135,2.0,3.0,59,0.00,,,0.00,WUHU21623XXSP,2013-01-05 13:00:00,
2013-01-05 07:01:00,48.0,34.4,30.41,WSW,247,0.0,3.0,59,0.00,,,0.00,WUHU21623XXSP,2013-01-05 13:01:00,
2013-01-05 07:05:00,48.0,34.4,30.41,South,188,2.0,3.0,59,0.00,,,0.00,WUHU21623XXSP,2013-01-05 13:05:00,
2013-01-05 07:06:00,48.0,34.4,30.41,South,188,2.0,3.0,59,0.00,,,0.00,WUHU21623XXSP,2013-01-05 13:06:00,
2013-01-05 07:11:00,48.0,34.4,30.40,SW,227,2.0,3.0,59,0.00,,,0.00,WUHU21623XXSP,2013-01-05 13:11:00,
2013-01-05 07:18:00,48.0,34.4,30.41,SW,225,0.0,3.0,59,0.00,,,0.00,WUHU21623XXSP,2013-01-05 13:18:00,
2013-01-05 07:23:00,47.8,34.2,30.41,SW,225,3.0,3.0,59,0.00,,,0.00,WUHU21623XXSP,2013-01-05 13:23:00,
2013-01-05 07:24:00,47.8,34.2,30.41,SW,225,2.0,3.0,59,0.00,,,0.00,WUHU21623XXSP,2013-01-05 13:24:00,
2013-01-05 07:29:00,47.8,34.7,30.41,SSE,157,0.0,3.0,60,0.00,,,0.00,WUHU21623XXSP,2013-01-05 13:29:00,
2013-01-05 07:34:00,47.7,34.5,30.41,South,180,2.0,3.0,60,0.00,,,0.00,WUHU21623XXSP,2013-01-05 13:34:00,
2013-01-05 07:39:00,47.7,34.5,30.41,South,180,2.0,3.0,60,0.00,,,0.00,WUHU21623XXSP,2013-01-05 13:39:00,
2013-01-05 07:40:00,47.7,34.5,30.41,South,180,0.0,3.0,60,0.00,,,0.00,WUHU21623XXSP,2013-01-05 13:40:00,
2013-01-05 07:44:00,47.5,34.3,30.41,South,180,2.0,2.0,60,0.00,,,0.00,WUHU21623XXSP,2013-01-05 13:44:00,
2013-01-05 07:45:00,47.5,34.3,30.41,SSW,202,0.0,2.0,60,0.00,,,0.00,WUHU21623XXSP,2013-01-05 13:45:00,
2013-01-05 07:49:00,47.5,34.3,30.41,SSW,202,0.0,2.0,60,0.00,,,0.00,WUHU21623XXSP,2013-01-05 13:49:00,
2013-01-05 07:50:00,47.5,34.3,30.41,South,180,0.0,2.0,60,0.00,,,0.00,WUHU21623XXSP,2013-01-05 13:50:00,
2013-01-05 07:54:00,47.5,34.3,30.41,SSW,202,3.0,3.0,60,0.00,,,0.00,WUHU21623XXSP,2013-01-05 13:54:00,
2013-01-05 07:55:00,47.5,34.3,30.41,SSW,208,2.0,3.0,60,0.00,,,0.00,WUHU21623XXSP,2013-01-05 13:55:00,
2013-01-05 07:59:00,47.3,34.2,30.41,SSW,199,2.0,3.0,60,0.00,,,0.00,WUHU21623XXSP,2013-01-05 13:59:00,
2013-01-05 08:00:00,47.3,34.2,30.41,SSW,202,2.0,3.0,60,0.00,,,0.00,WUHU21623XXSP,2013-01-05 14:00:00,
2013-01-05 08:04:00,47.3,34.2,30.41,SSE,158,2.0,4.0,60,0.00,,,0.00,WUHU21623XXSP,2013-01-05 14:04:00,
2013-01-05 08:05:00,47.3,34.2,30.41,SSE,153,2.0,4.0,60,0.00,,,0.00,WUHU21623XXSP,2013-01-05 14:05:00,
2013-01-05 08:09:00,47.3,34.2,30.41,South,180,2.0,6.0,60,0.00,,,0.00,WUHU21623XXSP,2013-01-05 14:09:00,
2013-01-05 08:10:00,47.3,34.2,30.41,SSW,213,2.0,6.0,60,0.00,,,0.00,WUHU21623XXSP,2013-01-05 14:10:00,
2013-01-05 08:14:00,47.3,34.5,30.41,SSW,202,2.0,6.0,61,0.00,,,0.00,WUHU21623XXSP,2013-01-05 14:14:00,
2013-01-05 08:15:00,47.1,34.4,30.41,SE,135,4.0,6.0,61,0.00,,,0.00,WUHU21623XXSP,2013-01-05 14:15:00,
2013-01-05 08:19:00,47.1,34.4,30.41,SSW,192,3.0,7.0,61,0.00,,,0.00,WUHU21623XXSP,2013-01-05 14:19:00,
2013-01-05 08:20:00,47.1,34.4,30.42,SSW,198,3.0,7.0,61,0.00,,,0.00,WUHU21623XXSP,2013-01-05 14:20:00,
2013-01-05 08:21:00,47.3,34.5,30.42,SSW,198,3.0,7.0,61,0.00,,,0.00,WUHU21623XXSP,2013-01-05 14:21:00,
2013-01-05 08:24:00,47.1,34.4,30.42,South,171,2.0,7.0,61,0.00,,,0.00,WUHU21623XXSP,2013-01-05 14:24:00,
2013-01-05 08:25:00,47.1,34.4,30.42,South,191,3.0,7.0,61,0.00,,,0.00,WUHU21623XXSP,2013-01-05 14:25:00,
2013-01-05 08:26:00,47.1,34.4,30.42,SSW,202,4.0,7.0,61,0.00,,,0.00,WUHU21623XXSP,2013-01-05 14:26:00,
2013-01-05 08:29:00,47.1,34.4,30.42,South,174,3.0,8.0,61,0.00,,,0.00,WUHU21623XXSP,2013-01-05 14:29:00,
2013-01-05 08:30:00,47.1,34.4,30.42,WSW,247,3.0,8.0,61,0.00,,,0.00,WUHU21623XXSP,2013-01-05 14:30:00,
2013-01-05 08:31:00,47.1,34.4,30.42,South,188,3.0,8.0,61,0.00,,,0.00,WUHU21623XXSP,2013-01-05 14:31:00,
2013-01-05 08:34:00,47.1,34.8,30.42,SSE,168,2.0,8.0,62,0.00,,,0.00,WUHU21623XXSP,2013-01-05 14:34:00,
2013-01-05 08:36:00,47.1,34.8,30.42,South,180,3.0,8.0,62,0.00,,,0.00,WUHU21623XXSP,2013-01-05 14:36:00,
2013-01-05 08:39:00,47.1,34.8,30.42,SSW,211,3.0,5.0,62,0.00,,,0.00,WUHU21623XXSP,2013-01-05 14:39:00,
2013-01-05 08:41:00,47.1,34.8,30.42,SSW,200,4.0,5.0,62,0.00,,,0.00,WUHU21623XXSP,2013-01-05 14:41:00,
2013-01-05 08:45:00,46.9,34.6,30.42,SSW,210,3.0,7.0,62,0.00,,,0.00,WUHU21623XXSP,2013-01-05 14:45:00,
2013-01-05 08:46:00,46.9,34.6,30.42,SW,234,3.0,7.0,62,0.00,,,0.00,WUHU21623XXSP,2013-01-05 14:46:00,
2013-01-05 08:50:00,46.9,34.6,30.42,SW,226,4.0,7.0,62,0.00,,,0.00,WUHU21623XXSP,2013-01-05 14:50:00,
2013-01-05 08:51:00,46.9,34.6,30.42,WSW,247,3.0,7.0,62,0.00,,,0.00,WUHU21623XXSP,2013-01-05 14:51:00,
2013-01-05 08:55:00,46.9,34.6,30.42,SSW,202,6.0,8.0,62,0.00,,,0.00,WUHU21623XXSP,2013-01-05 14:55:00,
2013-01-05 08:56:00,46.9,34.6,30.42,SSW,203,4.0,8.0,62,0.00,,,0.00,WUHU21623XXSP,2013-01-05 14:56:00,
2013-01-05 08:57:00,46.9,34.6,30.42,SSW,199,3.0,8.0,62,0.00,,,0.00,WUHU21623XXSP,2013-01-05 14:57:00,
2013-01-05 09:00:00,46.9,34.6,30.42,SW,225,4.0,8.0,62,0.00,,,0.00,WUHU21623XXSP,2013-01-05 15:00:00,
2013-01-05 09:01:00,46.8,34.4,30.42,SW,229,3.0,8.0,62,0.00,,,0.00,WUHU21623XXSP,2013-01-05 15:01:00,
2013-01-05 09:02:00,46.9,34.6,30.42,SW,235,3.0,8.0,62,0.00,,,0.00,WUHU21623XXSP,2013-01-05 15:02:00,
2013-01-05 09:06:00,46.8,34.4,30.42,SW,225,6.0,6.0,62,0.00,,,0.00,WUHU21623XXSP,2013-01-05 15:06:00,
2013-01-05 09:07:00,46.8,34.4,30.42,SSW,211,6.0,7.0,62,0.00,,,0.00,WUHU21623XXSP,2013-01-05 15:07:00,
2013-01-05 09:11:00,46.8,34.4,30.42,SSW,202,1.0,7.0,62,0.00,,,0.00,WUHU21623XXSP,2013-01-05 15:11:00,
2013-01-05 09:12:00,46.6,34.2,30.42,South,177,2.0,7.0,62,0.00,,,0.00,WUHU21623XXSP,2013-01-05 15:12:00,
2013-01-05 09:16:00,46.6,34.6,30.42,SW,226,5.0,9.0,63,0.00,,,0.00,WUHU21623XXSP,2013-01-05 15:16:00,
2013-01-05 09:17:00,46.6,34.6,30.42,SW,227,3.0,9.0,63,0.00,,,0.00,WUHU21623XXSP,2013-01-05 15:17:00,
2013-01-05 09:21:00,46.6,34.6,30.42,SW,225,5.0,9.0,63,0.00,,,0.00,WUHU21623XXSP,2013-01-05 15:21:00,
2013-01-05 09:22:00,46.6,34.6,30.42,SSW,202,7.0,9.0,63,0.00,,,0.00,WUHU21623XXSP,2013-01-05 15:22:00,
2013-01-05 09:26:00,46.6,34.6,30.42,SW,225,8.0,9.0,63,0.00,,,0.00,WUHU21623XXSP,2013-01-05 15:26:00,
2013-01-05 09:27:00,46.6,34.6,30.42,SW,230,5.0,9.0,63,0.00,,,0.00,WUHU21623XXSP,2013-01-05 15:27:00,
2013-01-05 09:31:00,46.6,34.6,30.42,West,270,3.0,9.0,63,0.00,,,0.00,WUHU21623XXSP,2013-01-05 15:31:00,
2013-01-05 09:32:00,46.6,34.6,30.42,WSW,250,4.0,8.0,63,0.00,,,0.00,WUHU21623XXSP,2013-01-05 15:32:00,
2013-01-05 09:33:00,46.6,34.6,30.42,WSW,249,4.0,8.0,63,0.00,,,0.00,WUHU21623XXSP,2013-01-05 15:33:00,
2013-01-05 09:36:00,46.6,34.6,30.43,SSW,213,5.0,8.0,63,0.00,,,0.00,WUHU21623XXSP,2013-01-05 15:36:00,
2013-01-05 09:37:00,46.6,34.6,30.43,SW,233,5.0,8.0,63,0.00,,,0.00,WUHU21623XXSP,2013-01-05 15:37:00,
2013-01-05 09:38:00,46.6,34.6,30.43,WSW,247,4.0,8.0,63,0.00,,,0.00,WUHU21623XXSP,2013-01-05 15:38:00,
2013-01-05 09:41:00,46.2,34.7,30.42,SW,219,4.0,9.0,64,0.00,,,0.00,WUHU21623XXSP,2013-01-05 15:41:00,
2013-01-05 09:42:00,46.2,34.7,30.42,South,180,2.0,9.0,64,0.00,,,0.00,WUHU21623XXSP,2013-01-05 15:42:00,
2013-01-05 09:43:00,46.2,34.7,30.42,South,180,2.0,9.0,64,0.00,,,0.00,WUHU21623XXSP,2013-01-05 15:43:00,
2013-01-05 09:46:00,46.2,34.7,30.43,SW,225,7.0,9.0,64,0.00,,,0.00,WUHU21623XXSP,2013-01-05 15:46:00,
2013-01-05 09:47:00,46.2,34.7,30.43,WSW,247,4.0,9.0,64,0.00,,,0.00,WUHU21623XXSP,2013-01-05 15:47:00,
2013-01-05 09:48:00,46.2,34.7,30.43,WSW,247,7.0,9.0,64,0.00,,,0.00,WUHU21623XXSP,2013-01-05 15:48:00,
2013-01-05 09:51:00,46.2,34.7,30.43,SSW,210,4.0,7.0,64,0.00,,,0.00,WUHU21623XXSP,2013-01-05 15:51:00,
2013-01-05 09:52:00,46.2,34.7,30.42,SSW,207,3.0,7.0,64,0.00,,,0.00,WUHU21623XXSP,2013-01-05 15:52:00,
2013-01-05 09:53:00,46.2,34.7,30.42,SW,214,2.0,7.0,64,0.00,,,0.00,WUHU21623XXSP,2013-01-05 15:53:00,
2013-01-05 09:56:00,46.2,34.7,30.42,SSW,211,4.0,7.0,64,0.00,,,0.00,WUHU21623XXSP,2013-01-05 15:56:00,
2013-01-05 09:57:00,46.2,34.7,30.42,SW,218,4.0,7.0,64,0.00,,,0.00,WUHU21623XXSP,2013-01-05 15:57:00,
2013-01-05 09:58:00,46.2,34.7,30.42,SW,225,7.0,10.0,64,0.00,,,0.00,WUHU21623XXSP,2013-01-05 15:58:00,
2013-01-05 10:01:00,46.4,34.8,30.42,SW,220,5.0,10.0,64,0.00,,,0.00,WUHU21623XXSP,2013-01-05 16:01:00,
2013-01-05 10:02:00,46.4,34.8,30.42,WSW,237,4.0,10.0,64,0.00,,,0.00,WUHU21623XXSP,2013-01-05 16:02:00,
2013-01-05 10:03:00,46.6,35.0,30.42,WSW,244,4.0,10.0,64,0.00,,,0.00,WUHU21623XXSP,2013-01-05 16:03:00,
2013-01-05 10:07:00,46.6,35.0,30.42,SSW,202,0.0,10.0,64,0.00,,,0.00,WUHU21623XXSP,2013-01-05 16:07:00,
2013-01-05 10:08:00,46.6,35.0,30.42,SSW,202,3.0,9.0,64,0.00,,,0.00,WUHU21623XXSP,2013-01-05 16:08:00,
2013-01-05 10:12:00,46.8,35.2,30.42,South,180,7.0,7.0,64,0.00,,,0.00,WUHU21623XXSP,2013-01-05 16:12:00,
2013-01-05 10:13:00,46.8,35.2,30.42,South,191,4.0,7.0,64,0.00,,,0.00,WUHU21623XXSP,2013-01-05 16:13:00,
2013-01-05 10:17:00,46.9,35.3,30.42,SW,230,3.0,7.0,64,0.00,,,0.00,WUHU21623XXSP,2013-01-05 16:17:00,
2013-01-05 10:18:00,46.9,35.3,30.42,SSW,202,3.0,7.0,64,0.00,,,0.00,WUHU21623XXSP,2013-01-05 16:18:00,
2013-01-05 10:19:00,46.9,35.3,30.42,SW,229,3.0,7.0,64,0.00,,,0.00,WUHU21623XXSP,2013-01-05 16:19:00,
2013-01-05 10:22:00,47.1,35.5,30.42,SW,225,3.0,6.0,64,0.00,,,0.00,WUHU21623XXSP,2013-01-05 16:22:00,
2013-01-05 10:23:00,47.1,35.5,30.42,SW,228,3.0,5.0,64,0.00,,,0.00,WUHU21623XXSP,2013-01-05 16:23:00,
2013-01-05 10:24:00,47.1,35.5,30.42,SW,232,3.0,5.0,64,0.00,,,0.00,WUHU21623XXSP,2013-01-05 16:24:00,
2013-01-05 10:27:00,47.1,35.5,30.42,SSE,157,4.0,4.0,64,0.00,,,0.00,WUHU21623XXSP,2013-01-05 16:27:00,
2013-01-05 10:28:00,47.1,35.5,30.42,South,180,4.0,4.0,64,0.00,,,0.00,WUHU21623XXSP,2013-01-05 16:28:00,
2013-01-05 10:29:00,47.1,35.5,30.42,SSW,202,6.0,6.0,64,0.00,,,0.00,WUHU21623XXSP,2013-01-05 16:29:00,
2013-01-05 10:32:00,47.3,35.7,30.41,WSW,247,3.0,6.0,64,0.00,,,0.00,WUHU21623XXSP,2013-01-05 16:32:00,
2013-01-05 10:34:00,47.3,35.7,30.42,SW,214,3.0,6.0,64,0.00,,,0.00,WUHU21623XXSP,2013-01-05 16:34:00,
2013-01-05 10:37:00,47.5,35.9,30.42,SW,225,5.0,8.0,64,0.00,,,0.00,WUHU21623XXSP,2013-01-05 16:37:00,
2013-01-05 10:39:00,47.5,35.9,30.41,SSW,201,3.0,8.0,64,0.00,,,0.00,WUHU21623XXSP,2013-01-05 16:39:00,
2013-01-05 10:42:00,47.5,35.9,30.42,SSW,196,4.0,9.0,64,0.00,,,0.00,WUHU21623XXSP,2013-01-05 16:42:00,
2013-01-05 10:44:00,47.5,35.9,30.42,SSW,198,3.0,9.0,64,0.00,,,0.00,WUHU21623XXSP,2013-01-05 16:44:00,
2013-01-05 10:47:00,47.5,35.9,30.41,South,179,3.0,9.0,64,0.00,,,0.00,WUHU21623XXSP,2013-01-05 16:47:00,
2013-01-05 10:49:00,47.7,36.0,30.41,SSW,202,5.0,9.0,64,0.00,,,0.00,WUHU21623XXSP,2013-01-05 16:49:00,
2013-01-05 10:52:00,47.8,36.2,30.41,WSW,243,2.0,5.0,64,0.00,,,0.00,WUHU21623XXSP,2013-01-05 16:52:00,
2013-01-05 10:54:00,47.8,36.2,30.41,West,270,4.0,5.0,64,0.00,,,0.00,WUHU21623XXSP,2013-01-05 16:54:00,
2013-01-05 10:57:00,47.8,35.8,30.41,SSW,202,4.0,5.0,63,0.00,,,0.00,WUHU21623XXSP,2013-01-05 16:57:00,
2013-01-05 10:59:00,47.8,35.8,30.41,SSW,202,6.0,6.0,63,0.00,,,0.00,WUHU21623XXSP,2013-01-05 16:59:00,
2013-01-05 11:00:00,48.0,36.0,30.41,South,191,4.0,6.0,63,0.00,,,0.00,WUHU21623XXSP,2013-01-05 17:00:00,
2013-01-05 11:02:00,48.0,36.0,30.41,SW,233,6.0,7.0,63,0.00,,,0.00,WUHU21623XXSP,2013-01-05 17:02:00,
2013-01-05 11:04:00,48.0,36.0,30.41,WSW,247,3.0,7.0,63,0.00,,,0.00,WUHU21623XXSP,2013-01-05 17:04:00,
2013-01-05 11:05:00,48.0,36.0,30.41,WSW,241,2.0,7.0,63,0.00,,,0.00,WUHU21623XXSP,2013-01-05 17:05:00,
2013-01-05 11:07:00,48.0,36.0,30.41,SW,225,8.0,8.0,63,0.00,,,0.00,WUHU21623XXSP,2013-01-05 17:07:00,
2013-01-05 11:10:00,48.0,36.0,30.41,SW,221,6.0,9.0,63,0.00,,,0.00,WUHU21623XXSP,2013-01-05 17:10:00,
2013-01-05 11:11:00,47.8,35.8,30.41,SW,225,6.0,9.0,63,0.00,,,0.00,WUHU21623XXSP,2013-01-05 17:11:00,
2013-01-05 11:12:00,47.8,35.8,30.41,SW,234,4.0,9.0,63,0.00,,,0.00,WUHU21623XXSP,2013-01-05 17:12:00,
2013-01-05 11:15:00,47.8,35.8,30.41,WSW,237,3.0,9.0,63,0.00,,,0.00,WUHU21623XXSP,2013-01-05 17:15:00,
2013-01-05 11:16:00,47.8,35.8,30.41,WSW,247,9.0,10.0,63,0.00,,,0.00,WUHU21623XXSP,2013-01-05 17:16:00,
2013-01-05 11:17:00,47.8,35.8,30.41,South,180,8.0,10.0,63,0.00,,,0.00,WUHU21623XXSP,2013-01-05 17:17:00,
2013-01-05 11:20:00,47.8,35.8,30.41,WSW,240,4.0,10.0,63,0.00,,,0.00,WUHU21623XXSP,2013-01-05 17:20:00,
2013-01-05 11:21:00,47.8,35.8,30.41,WSW,247,6.0,10.0,63,0.00,,,0.00,WUHU21623XXSP,2013-01-05 17:21:00,
2013-01-05 11:23:00,47.7,35.7,30.41,SW,229,5.0,10.0,63,0.00,,,0.00,WUHU21623XXSP,2013-01-05 17:23:00,
2013-01-05 11:25:00,47.7,35.7,30.41,SW,225,6.0,10.0,63,0.00,,,0.00,WUHU21623XXSP,2013-01-05 17:25:00,
2013-01-05 11:26:00,47.7,35.7,30.41,SW,232,6.0,11.0,63,0.00,,,0.00,WUHU21623XXSP,2013-01-05 17:26:00,
2013-01-05 11:28:00,47.5,35.5,30.41,SW,220,5.0,11.0,63,0.00,,,0.00,WUHU21623XXSP,2013-01-05 17:28:00,
2013-01-05 11:30:00,47.5,35.5,30.41,WSW,247,6.0,11.0,63,0.00,,,0.00,WUHU21623XXSP,2013-01-05 17:30:00,
2013-01-05 11:32:00,47.5,35.9,30.41,SW,236,4.0,11.0,64,0.00,,,0.00,WUHU21623XXSP,2013-01-05 17:32:00,
2013-01-05 11:33:00,47.7,36.0,30.41,SW,215,4.0,11.0,64,0.00,,,0.00,WUHU21623XXSP,2013-01-05 17:33:00,
2013-01-05 11:35:00,47.7,36.0,30.41,WSW,257,3.0,11.0,64,0.00,,,0.00,WUHU21623XXSP,2013-01-05 17:35:00,
2013-01-05 11:37:00,47.7,36.0,30.41,WSW,248,3.0,10.0,64,0.00,,,0.00,WUHU21623XXSP,2013-01-05 17:37:00,
2013-01-05 11:39:00,47.7,36.0,30.41,WNW,292,3.0,7.0,64,0.00,,,0.00,WUHU21623XXSP,2013-01-05 17:39:00,
2013-01-05 11:40:00,47.7,36.0,30.41,West,270,4.0,7.0,64,0.00,,,0.00,WUHU21623XXSP,2013-01-05 17:40:00,
2013-01-05 11:42:00,47.8,36.2,30.40,West,263,4.0,6.0,64,0.00,,,0.00,WUHU21623XXSP,2013-01-05 17:42:00,
2013-01-05 11:44:00,47.8,36.2,30.40,SW,225,5.0,6.0,64,0.00,,,0.00,WUHU21623XXSP,2013-01-05 17:44:00,
2013-01-05 11:45:00,47.7,36.0,30.40,West,270,7.0,7.0,64,0.00,,,0.00,WUHU21623XXSP,2013-01-05 17:45:00,
2013-01-05 11:47:00,47.7,36.0,30.40,West,259,5.0,8.0,64,0.00,,,0.00,WUHU21623XXSP,2013-01-05 17:47:00,
2013-01-05 11:49:00,47.7,36.0,30.40,WSW,247,4.0,8.0,64,0.00,,,0.00,WUHU21623XXSP,2013-01-05 17:49:00,
2013-01-05 11:50:00,47.5,35.9,30.40,West,270,6.0,9.0,64,0.00,,,0.00,WUHU21623XXSP,2013-01-05 17:50:00,
2013-01-05 11:52:00,47.5,35.9,30.39,WSW,255,4.0,9.0,64,0.00,,,0.00,WUHU21623XXSP,2013-01-05 17:52:00,
2013-01-05 11:54:00,47.3,35.7,30.39,West,270,3.0,9.0,64,0.00,,,0.00,WUHU21623XXSP,2013-01-05 17:54:00,
2013-01-05 11:55:00,47.3,35.7,30.39,WSW,247,9.0,9.0,64,0.00,,,0.00,WUHU21623XXSP,2013-01-05 17:55:00,
2013-01-05 11:57:00,47.3,35.7,30.39,WSW,253,5.0,9.0,64,0.00,,,0.00,WUHU21623XXSP,2013-01-05 17:57:00,
2013-01-05 11:59:00,47.1,35.5,30.38,WSW,255,4.0,9.0,64,0.00,,,0.00,WUHU21623XXSP,2013-01-05 17:59:00,
2013-01-05 12:00:00,47.1,35.5,30.39,SW,225,6.0,9.0,64,0.00,,,0.00,WUHU21623XXSP,2013-01-05 18:00:00,
2013-01-05 12:02:00,47.1,35.5,30.38,SW,225,5.0,9.0,64,0.00,,,0.00,WUHU21623XXSP,2013-01-05 18:02:00,
2013-01-05 12:04:00,47.1,35.5,30.38,SW,225,6.0,9.0,64,0.00,,,0.00,WUHU21623XXSP,2013-01-05 18:04:00,
2013-01-05 12:05:00,47.1,35.5,30.38,SW,230,4.0,8.0,64,0.00,,,0.00,WUHU21623XXSP,2013-01-05 18:05:00,
2013-01-05 12:06:00,47.1,35.5,30.38,SW,232,5.0,8.0,64,0.00,,,0.00,WUHU21623XXSP,2013-01-05 18:06:00,
2013-01-05 12:07:00,47.1,35.5,30.38,SW,233,4.0,6.0,64,0.00,,,0.00,WUHU21623XXSP,2013-01-05 18:07:00,
2013-01-05 12:10:00,47.3,35.7,30.38,SSW,212,2.0,6.0,64,0.00,,,0.00,WUHU21623XXSP,2013-01-05 18:10:00,
2013-01-05 12:11:00,47.1,35.5,30.37,SSW,202,2.0,6.0,64,0.00,,,0.00,WUHU21623XXSP,2013-01-05 18:11:00,
2013-01-05 12:12:00,47.3,35.7,30.37,SSW,208,4.0,7.0,64,0.00,,,0.00,WUHU21623XXSP,2013-01-05 18:12:00,
2013-01-05 12:15:00,47.5,35.9,30.37,SW,233,5.0,8.0,64,0.00,,,0.00,WUHU21623XXSP,2013-01-05 18:15:00,
2013-01-05 12:16:00,47.5,35.9,30.37,SW,225,5.0,8.0,64,0.00,,,0.00,WUHU21623XXSP,2013-01-05 18:16:00,
2013-01-05 12:17:00,47.7,36.0,30.37,SW,227,5.0,8.0,64,0.00,,,0.00,WUHU21623XXSP,2013-01-05 18:17:00,
2013-01-05 12:20:00,47.8,36.2,30.37,WSW,242,5.0,8.0,64,0.00,,,0.00,WUHU21623XXSP,2013-01-05 18:20:00,
2013-01-05 12:21:00,47.8,36.2,30.37,WSW,242,5.0,8.0,64,0.00,,,0.00,WUHU21623XXSP,2013-01-05 18:21:00,
2013-01-05 12:22:00,47.8,36.2,30.37,WSW,258,3.0,8.0,64,0.00,,,0.00,WUHU21623XXSP,2013-01-05 18:22:00,
2013-01-05 12:25:00,48.0,36.4,30.37,SW,225,9.0,9.0,64,0.00,,,0.00,WUHU21623XXSP,2013-01-05 18:25:00,
2013-01-05 12:26:00,48.0,36.4,30.37,SW,230,6.0,9.0,64,0.00,,,0.00,WUHU21623XXSP,2013-01-05 18:26:00,
2013-01-05 12:28:00,48.0,36.4,30.37,WSW,241,5.0,9.0,64,0.00,,,0.00,WUHU21623XXSP,2013-01-05 18:28:00,
2013-01-05 12:30:00,48.0,36.4,30.37,SW,225,5.0,9.0,64,0.00,,,0.00,WUHU21623XXSP,2013-01-05 18:30:00,
2013-01-05 12:31:00,48.0,36.4,30.36,WSW,242,4.0,9.0,64,0.00,,,0.00,WUHU21623XXSP,2013-01-05 18:31:00,
2013-01-05 12:32:00,48.0,36.4,30.36,West,270,5.0,9.0,64,0.00,,,0.00,WUHU21623XXSP,2013-01-05 18:32:00,
2013-01-05 12:33:00,48.0,36.4,30.36,West,270,4.0,9.0,64,0.00,,,0.00,WUHU21623XXSP,2013-01-05 18:33:00,
2013-01-05 12:35:00,48.0,36.4,30.36,West,260,5.0,8.0,64,0.00,,,0.00,WUHU21623XXSP,2013-01-05 18:35:00,
2013-01-05 12:37:00,48.0,36.4,30.36,SW,234,3.0,8.0,64,0.00,,,0.00,WUHU21623XXSP,2013-01-05 18:37:00,
2013-01-05 12:38:00,48.0,36.4,30.36,SW,220,2.0,8.0,64,0.00,,,0.00,WUHU21623XXSP,2013-01-05 18:38:00,
2013-01-05 12:40:00,48.2,36.6,30.36,South,180,7.0,8.0,64,0.00,,,0.00,WUHU21623XXSP,2013-01-05 18:40:00,
2013-01-05 12:42:00,48.2,36.6,30.35,SSW,194,5.0,8.0,64,0.00,,,0.00,WUHU21623XXSP,2013-01-05 18:42:00,
2013-01-05 12:43:00,48.4,36.7,30.35,SSW,202,6.0,8.0,64,0.00,,,0.00,WUHU21623XXSP,2013-01-05 18:43:00,
2013-01-05 12:45:00,48.6,36.9,30.35,SW,217,6.0,10.0,64,0.00,,,0.00,WUHU21623XXSP,2013-01-05 18:45:00,
2013-01-05 12:47:00,48.6,36.9,30.35,South,180,4.0,10.0,64,0.00,,,0.00,WUHU21623XXSP,2013-01-05 18:47:00,
2013-01-05 12:48:00,48.7,37.1,30.34,SSW,203,4.0,10.0,64,0.00,,,0.00,WUHU21623XXSP,2013-01-05 18:48:00,
2013-01-05 12:50:00,48.7,37.1,30.34,SW,225,5.0,10.0,64,0.00,,,0.00,WUHU21623XXSP,2013-01-05 18:50:00,
2013-01-05 12:52:00,48.9,37.2,30.34,SW,219,5.0,11.0,64,0.00,,,0.00,WUHU21623XXSP,2013-01-05 18:52:00,
2013-01-05 12:53:00,48.9,37.2,30.34,SW,229,6.0,11.0,64,0.00,,,0.00,WUHU21623XXSP,2013-01-05 18:53:00,
2013-01-05 12:55:00,48.9,36.9,30.34,SW,225,9.0,11.0,63,0.00,,,0.00,WUHU21623XXSP,2013-01-05 18:55:00,
2013-01-05 12:58:00,48.9,36.9,30.33,SSE,157,4.0,11.0,63,0.00,,,0.00,WUHU21623XXSP,2013-01-05 18:58:00,
2013-01-05 12:59:00,49.1,37.0,30.33,SSW,207,5.0,11.0,63,0.00,,,0.00,WUHU21623XXSP,2013-01-05 18:59:00,
2013-01-05 13:00:00,49.1,37.0,30.33,South,183,4.0,11.0,63,0.00,,,0.00,WUHU21623XXSP,2013-01-05 19:00:00,
2013-01-05 13:03:00,49.3,37.2,30.33,South,169,6.0,10.0,63,0.00,,,0.00,WUHU21623XXSP,2013-01-05 19:03:00,
2013-01-05 13:04:00,49.3,37.2,30.33,SSE,157,8.0,10.0,63,0.00,,,0.00,WUHU21623XXSP,2013-01-05 19:04:00,
2013-01-05 13:05:00,49.3,37.2,30.33,SE,135,6.0,10.0,63,0.00,,,0.00,WUHU21623XXSP,2013-01-05 19:05:00,
2013-01-05 13:08:00,49.6,37.5,30.32,SSW,202,2.0,10.0,63,0.00,,,0.00,WUHU21623XXSP,2013-01-05 19:08:00,
2013-01-05 13:09:00,49.6,37.5,30.32,SSE,157,6.0,10.0,63,0.00,,,0.00,WUHU21623XXSP,2013-01-05 19:09:00,
2013-01-05 13:11:00,49.6,37.5,30.32,SSE,157,9.0,10.0,63,0.00,,,0.00,WUHU21623XXSP,2013-01-05 19:11:00,
2013-01-05 13:13:00,49.8,37.7,30.32,SSE,157,10.0,10.0,63,0.00,,,0.00,WUHU21623XXSP,2013-01-05 19:13:00,
2013-01-05 13:14:00,49.8,37.7,30.32,SSE,162,6.0,10.0,63,0.00,,,0.00,WUHU21623XXSP,2013-01-05 19:14:00,
2013-01-05 13:16:00,50.2,38.0,30.32,SW,225,4.0,10.0,63,0.00,,,0.00,WUHU21623XXSP,2013-01-05 19:16:00,
2013-01-05 13:18:00,50.2,37.6,30.32,SSE,157,5.0,10.0,62,0.00,,,0.00,WUHU21623XXSP,2013-01-05 19:18:00,
2013-01-05 13:19:00,50.2,37.6,30.32,SSW,193,4.0,10.0,62,0.00,,,0.00,WUHU21623XXSP,2013-01-05 19:19:00,
2013-01-05 13:21:00,50.4,37.8,30.32,South,180,6.0,10.0,62,0.00,,,0.00,WUHU21623XXSP,2013-01-05 19:21:00,
2013-01-05 13:23:00,50.5,38.0,30.32,SSW,202,6.0,9.0,62,0.00,,,0.00,WUHU21623XXSP,2013-01-05 19:23:00,
2013-01-05 13:24:00,50.4,37.8,30.32,SSW,202,5.0,9.0,62,0.00,,,0.00,WUHU21623XXSP,2013-01-05 19:24:00,
2013-01-05 13:26:00,50.5,38.0,30.32,SW,228,7.0,10.0,62,0.00,,,0.00,WUHU21623XXSP,2013-01-05 19:26:00,
2013-01-05 13:28:00,50.5,38.0,30.31,SW,236,5.0,10.0,62,0.00,,,0.00,WUHU21623XXSP,2013-01-05 19:28:00,
2013-01-05 13:29:00,50.5,38.0,30.31,WSW,242,5.0,10.0,62,0.00,,,0.00,WUHU21623XXSP,2013-01-05 19:29:00,
2013-01-05 13:32:00,50.7,38.1,30.32,South,169,6.0,10.0,62,0.00,,,0.00,WUHU21623XXSP,2013-01-05 19:32:00,
2013-01-05 13:33:00,50.7,38.1,30.31,South,187,4.0,10.0,62,0.00,,,0.00,WUHU21623XXSP,2013-01-05 19:33:00,
2013-01-05 13:34:00,50.7,38.1,30.31,SSW,202,5.0,10.0,62,0.00,,,0.00,WUHU21623XXSP,2013-01-05 19:34:00,
2013-01-05 13:37:00,50.7,37.7,30.31,SW,214,5.0,9.0,61,0.00,,,0.00,WUHU21623XXSP,2013-01-05 19:37:00,
2013-01-05 13:39:00,50.9,37.9,30.31,SSW,207,4.0,9.0,61,0.00,,,0.00,WUHU21623XXSP,2013-01-05 19:39:00,
2013-01-05 13:42:00,51.1,38.0,30.31,South,180,5.0,9.0,61,0.00,,,0.00,WUHU21623XXSP,2013-01-05 19:42:00,
2013-01-05 13:44:00,51.1,38.0,30.31,SSE,157,5.0,9.0,61,0.00,,,0.00,WUHU21623XXSP,2013-01-05 19:44:00,
2013-01-05 13:47:00,51.1,38.5,30.30,SSE,165,5.0,7.0,62,0.00,,,0.00,WUHU21623XXSP,2013-01-05 19:47:00,
2013-01-05 13:49:00,51.4,38.8,30.30,SSE,164,5.0,7.0,62,0.00,,,0.00,WUHU21623XXSP,2013-01-05 19:49:00,
2013-01-05 13:53:00,51.4,38.4,30.30,SW,225,5.0,7.0,61,0.00,,,0.00,WUHU21623XXSP,2013-01-05 19:53:00,
2013-01-05 13:54:00,51.6,38.5,30.30,SSW,202,8.0,8.0,61,0.00,,,0.00,WUHU21623XXSP,2013-01-05 19:54:00,
2013-01-05 13:55:00,51.6,38.5,30.30,SW,214,5.0,8.0,61,0.00,,,0.00,WUHU21623XXSP,2013-01-05 19:55:00,
2013-01-05 13:58:00,51.6,38.5,30.30,WSW,247,12.0,12.0,61,0.00,,,0.00,WUHU21623XXSP,2013-01-05 19:58:00,
2013-01-05 13:59:00,51.6,38.5,30.30,WSW,244,6.0,12.0,61,0.00,,,0.00,WUHU21623XXSP,2013-01-05 19:59:00,
2013-01-05 14:00:00,51.6,38.5,30.30,West,270,4.0,12.0,61,0.00,,,0.00,WUHU21623XXSP,2013-01-05 20:00:00,
2013-01-05 14:03:00,51.6,38.5,30.30,South,188,4.0,12.0,61,0.00,,,0.00,WUHU21623XXSP,2013-01-05 20:03:00,
2013-01-05 14:04:00,51.6,38.5,30.30,South,189,5.0,12.0,61,0.00,,,0.00,WUHU21623XXSP,2013-01-05 20:04:00,
2013-01-05 14:05:00,51.6,38.5,30.30,South,188,6.0,12.0,61,0.00,,,0.00,WUHU21623XXSP,2013-01-05 20:05:00,
2013-01-05 14:08:00,51.6,38.5,30.30,SW,222,5.0,11.0,61,0.00,,,0.00,WUHU21623XXSP,2013-01-05 20:08:00,
2013-01-05 14:09:00,51.6,38.1,30.30,SW,214,4.0,8.0,60,0.00,,,0.00,WUHU21623XXSP,2013-01-05 20:09:00,
2013-01-05 14:10:00,51.6,38.1,30.30,SW,225,3.0,8.0,60,0.00,,,0.00,WUHU21623XXSP,2013-01-05 20:10:00,
2013-01-05 14:13:00,51.6,38.1,30.30,South,190,4.0,8.0,60,0.00,,,0.00,WUHU21623XXSP,2013-01-05 20:13:00,
2013-01-05 14:14:00,51.8,38.1,30.30,SSW,202,4.0,8.0,60,0.00,,,0.00,WUHU21623XXSP,2013-01-05 20:14:00,
2013-01-05 14:15:00,51.8,38.3,30.30,South,180,2.0,8.0,60,0.00,,,0.00,WUHU21623XXSP,2013-01-05 20:15:00,
2013-01-05 14:16:00,51.8,38.3,30.30,South,189,3.0,8.0,60,0.00,,,0.00,WUHU21623XXSP,2013-01-05 20:16:00,
2013-01-05 14:18:00,52.0,38.5,30.30,South,179,4.0,7.0,60,0.00,,,0.00,WUHU21623XXSP,2013-01-05 20:18:00,
2013-01-05 14:19:00,52.0,38.5,30.30,SSE,157,7.0,7.0,60,0.00,,,0.00,WUHU21623XXSP,2013-01-05 20:19:00,
2013-01-05 14:20:00,52.0,38.5,30.30,SSW,202,6.0,7.0,60,0.00,,,0.00,WUHU21623XXSP,2013-01-05 20:20:00,
2013-01-05 14:21:00,52.0,38.5,30.30,SW,225,8.0,8.0,60,0.00,,,0.00,WUHU21623XXSP,2013-01-05 20:21:00,
2013-01-05 14:23:00,52.2,38.7,30.30,WSW,247,9.0,9.0,60,0.00,,,0.00,WUHU21623XXSP,2013-01-05 20:23:00,
2013-01-05 14:24:00,52.2,38.7,30.30,SSW,202,9.0,9.0,60,0.00,,,0.00,WUHU21623XXSP,2013-01-05 20:24:00,
2013-01-05 14:25:00,52.2,38.7,30.30,SSW,202,6.0,9.0,60,0.00,,,0.00,WUHU21623XXSP,2013-01-05 20:25:00,
2013-01-05 14:26:00,52.2,38.7,30.30,SSW,208,6.0,9.0,60,0.00,,,0.00,WUHU21623XXSP,2013-01-05 20:26:00,
2013-01-05 14:28:00,52.2,38.7,30.30,South,170,4.0,9.0,60,0.00,,,0.00,WUHU21623XXSP,2013-01-05 20:28:00,
2013-01-05 14:29:00,52.2,38.7,30.30,SSE,161,5.0,9.0,60,0.00,,,0.00,WUHU21623XXSP,2013-01-05 20:29:00,
2013-01-05 14:30:00,52.2,38.7,30.30,SSE,157,5.0,9.0,60,0.00,,,0.00,WUHU21623XXSP,2013-01-05 20:30:00,
2013-01-05 14:31:00,52.2,38.7,30.30,SE,143,4.0,9.0,60,0.00,,,0.00,WUHU21623XXSP,2013-01-05 20:31:00,
2013-01-05 14:33:00,52.3,38.8,30.30,WSW,241,5.0,9.0,60,0.00,,,0.00,WUHU21623XXSP,2013-01-05 20:33:00,
2013-01-05 14:34:00,52.3,38.8,30.30,SW,225,8.0,9.0,60,0.00,,,0.00,WUHU21623XXSP,2013-01-05 20:34:00,
2013-01-05 14:36:00,52.3,38.8,30.30,WSW,247,7.0,10.0,60,0.00,,,0.00,WUHU21623XXSP,2013-01-05 20:36:00,
2013-01-05 14:38:00,52.3,38.4,30.29,SW,222,6.0,10.0,59,0.00,,,0.00,WUHU21623XXSP,2013-01-05 20:38:00,
2013-01-05 14:39:00,52.3,38.4,30.29,West,270,5.0,10.0,59,0.00,,,0.00,WUHU21623XXSP,2013-01-05 20:39:00,
2013-01-05 14:41:00,52.3,38.4,30.30,SSE,157,3.0,10.0,59,0.00,,,0.00,WUHU21623XXSP,2013-01-05 20:41:00,
2013-01-05 14:44:00,52.5,38.6,30.29,SW,225,8.0,10.0,59,0.00,,,0.00,WUHU21623XXSP,2013-01-05 20:44:00,
2013-01-05 14:46:00,52.5,38.6,30.30,SSW,194,5.0,11.0,59,0.00,,,0.00,WUHU21623XXSP,2013-01-05 20:46:00,
2013-01-05 14:49:00,52.5,38.6,30.29,SW,218,7.0,12.0,59,0.00,,,0.00,WUHU21623XXSP,2013-01-05 20:49:00,
2013-01-05 14:50:00,52.5,38.6,30.29,SSW,211,7.0,12.0,59,0.00,,,0.00,WUHU21623XXSP,2013-01-05 20:50:00,
2013-01-05 14:51:00,52.5,38.6,30.29,South,184,3.0,12.0,59,0.00,,,0.00,WUHU21623XXSP,2013-01-05 20:51:00,
2013-01-05 14:54:00,52.5,38.6,30.30,SSE,157,5.0,12.0,59,0.00,,,0.00,WUHU21623XXSP,2013-01-05 20:54:00,
2013-01-05 14:55:00,52.5,38.1,30.29,SW,223,6.0,12.0,58,0.00,,,0.00,WUHU21623XXSP,2013-01-05 20:55:00,
2013-01-05 14:56:00,52.7,38.3,30.29,SSW,206,4.0,12.0,58,0.00,,,0.00,WUHU21623XXSP,2013-01-05 20:56:00,
2013-01-05 14:59:00,52.7,38.3,30.29,SSW,200,5.0,11.0,58,0.00,,,0.00,WUHU21623XXSP,2013-01-05 20:59:00,
2013-01-05 15:00:00,52.7,38.3,30.29,SW,225,7.0,11.0,58,0.00,,,0.00,WUHU21623XXSP,2013-01-05 21:00:00,
2013-01-05 15:01:00,52.7,38.3,30.29,SW,219,5.0,11.0,58,0.00,,,0.00,WUHU21623XXSP,2013-01-05 21:01:00,
2013-01-05 15:02:00,52.7,38.3,30.29,SSE,157,8.0,11.0,58,0.00,,,0.00,WUHU21623XXSP,2013-01-05 21:02:00,
2013-01-05 15:04:00,52.7,38.3,30.29,SSW,202,7.0,11.0,58,0.00,,,0.00,WUHU21623XXSP,2013-01-05 21:04:00,
2013-01-05 15:05:00,52.7,38.3,30.29,SW,223,5.0,11.0,58,0.00,,,0.00,WUHU21623XXSP,2013-01-05 21:05:00,
2013-01-05 15:07:00,52.9,38.4,30.29,SSW,202,3.0,11.0,58,0.00,,,0.00,WUHU21623XXSP,2013-01-05 21:07:00,
2013-01-05 15:09:00,52.9,38.4,30.30,South,179,3.0,11.0,58,0.00,,,0.00,WUHU21623XXSP,2013-01-05 21:09:00,
2013-01-05 15:10:00,52.9,38.4,30.30,SSW,199,4.0,11.0,58,0.00,,,0.00,WUHU21623XXSP,2013-01-05 21:10:00,
2013-01-05 15:12:00,52.9,38.4,30.29,SW,233,4.0,11.0,58,0.00,,,0.00,WUHU21623XXSP,2013-01-05 21:12:00,
2013-01-05 15:14:00,52.9,38.4,30.30,SW,234,5.0,11.0,58,0.00,,,0.00,WUHU21623XXSP,2013-01-05 21:14:00,
2013-01-05 15:15:00,52.9,38.4,30.30,West,270,5.0,10.0,58,0.00,,,0.00,WUHU21623XXSP,2013-01-05 21:15:00,
2013-01-05 15:17:00,53.1,38.6,30.30,WSW,247,8.0,10.0,58,0.00,,,0.00,WUHU21623XXSP,2013-01-05 21:17:00,
2013-01-05 15:19:00,53.1,38.6,30.30,WSW,254,2.0,9.0,58,0.00,,,0.00,WUHU21623XXSP,2013-01-05 21:19:00,
2013-01-05 15:20:00,53.1,38.6,30.30,SSW,202,5.0,9.0,58,0.00,,,0.00,WUHU21623XXSP,2013-01-05 21:20:00,
2013-01-05 15:22:00,53.1,38.6,30.30,SSW,212,4.0,9.0,58,0.00,,,0.00,WUHU21623XXSP,2013-01-05 21:22:00,
2013-01-05 15:25:00,52.9,38.4,30.30,South,186,3.0,9.0,58,0.00,,,0.00,WUHU21623XXSP,2013-01-05 21:25:00,
2013-01-05 15:26:00,52.9,38.4,30.30,SSW,198,3.0,8.0,58,0.00,,,0.00,WUHU21623XXSP,2013-01-05 21:26:00,
2013-01-05 15:27:00,52.9,38.4,30.30,ESE,112,4.0,8.0,58,0.00,,,0.00,WUHU21623XXSP,2013-01-05 21:27:00,
2013-01-05 15:28:00,52.9,38.4,30.30,South,178,3.0,8.0,58,0.00,,,0.00,WUHU21623XXSP,2013-01-05 21:28:00,
2013-01-05 15:30:00,53.1,38.6,30.30,South,180,6.0,8.0,58,0.00,,,0.00,WUHU21623XXSP,2013-01-05 21:30:00,
2013-01-05 15:31:00,53.1,38.6,30.30,South,182,5.0,8.0,58,0.00,,,0.00,WUHU21623XXSP,2013-01-05 21:31:00,
2013-01-05 15:32:00,53.2,38.8,30.30,South,190,3.0,8.0,58,0.00,,,0.00,WUHU21623XXSP,2013-01-05 21:32:00,
2013-01-05 15:33:00,53.2,38.8,30.30,South,176,2.0,8.0,58,0.00,,,0.00,WUHU21623XXSP,2013-01-05 21:33:00,
2013-01-05 15:35:00,53.2,38.8,30.30,SW,214,3.0,8.0,58,0.00,,,0.00,WUHU21623XXSP,2013-01-05 21:35:00,
2013-01-05 15:36:00,53.2,38.8,30.30,SSW,205,4.0,8.0,58,0.00,,,0.00,WUHU21623XXSP,2013-01-05 21:36:00,
2013-01-05 15:37:00,53.2,38.8,30.30,WSW,247,7.0,8.0,58,0.00,,,0.00,WUHU21623XXSP,2013-01-05 21:37:00,
2013-01-05 15:38:00,53.2,38.8,30.30,SW,231,5.0,8.0,58,0.00,,,0.00,WUHU21623XXSP,2013-01-05 21:38:00,
2013-01-05 15:40:00,53.2,38.8,30.30,SW,225,7.0,10.0,58,0.00,,,0.00,WUHU21623XXSP,2013-01-05 21:40:00,
2013-01-05 15:41:00,53.2,38.3,30.30,SW,225,6.0,10.0,57,0.00,,,0.00,WUHU21623XXSP,2013-01-05 21:41:00,
2013-01-05 15:42:00,53.2,38.3,30.30,SW,225,3.0,10.0,57,0.00,,,0.00,WUHU21623XXSP,2013-01-05 21:42:00,
2013-01-05 15:43:00,53.2,38.3,30.30,SSW,202,7.0,10.0,57,0.00,,,0.00,WUHU21623XXSP,2013-01-05 21:43:00,
2013-01-05 15:45:00,53.2,38.3,30.30,SSW,202,4.0,10.0,57,0.00,,,0.00,WUHU21623XXSP,2013-01-05 21:45:00,
2013-01-05 15:46:00,53.2,38.3,30.30,SW,223,3.0,10.0,57,0.00,,,0.00,WUHU21623XXSP,2013-01-05 21:46:00,
2013-01-05 15:47:00,53.4,38.5,30.29,South,180,5.0,10.0,57,0.00,,,0.00,WUHU21623XXSP,2013-01-05 21:47:00,
2013-01-05 15:48:00,53.4,38.5,30.29,South,188,5.0,10.0,57,0.00,,,0.00,WUHU21623XXSP,2013-01-05 21:48:00,
2013-01-05 15:50:00,53.4,39.0,30.29,SSE,157,5.0,9.0,58,0.00,,,0.00,WUHU21623XXSP,2013-01-05 21:50:00,
2013-01-05 15:52:00,53.4,39.0,30.29,SSE,157,6.0,8.0,58,0.00,,,0.00,WUHU21623XXSP,2013-01-05 21:52:00,
2013-01-05 15:53:00,53.4,39.0,30.29,SSE,152,6.0,10.0,58,0.00,,,0.00,WUHU21623XXSP,2013-01-05 21:53:00,
2013-01-05 15:55:00,53.4,39.0,30.29,SE,144,5.0,10.0,58,0.00,,,0.00,WUHU21623XXSP,2013-01-05 21:55:00,
2013-01-05 15:57:00,53.8,39.3,30.29,SSE,157,5.0,10.0,58,0.00,,,0.00,WUHU21623XXSP,2013-01-05 21:57:00,
2013-01-05 15:58:00,53.8,39.3,30.29,SSE,157,7.0,10.0,58,0.00,,,0.00,WUHU21623XXSP,2013-01-05 21:58:00,
2013-01-05 16:00:00,53.8,38.9,30.29,SSE,161,4.0,10.0,57,0.00,,,0.00,WUHU21623XXSP,2013-01-05 22:00:00,
2013-01-05 16:02:00,53.8,38.9,30.29,WSW,239,5.0,9.0,57,0.00,,,0.00,WUHU21623XXSP,2013-01-05 22:02:00,
2013-01-05 16:03:00,53.8,38.9,30.29,SW,225,4.0,9.0,57,0.00,,,0.00,WUHU21623XXSP,2013-01-05 22:03:00,
2013-01-05 16:04:00,53.8,38.9,30.29,SW,220,4.0,7.0,57,0.00,,,0.00,WUHU21623XXSP,2013-01-05 22:04:00,
2013-01-05 16:05:00,53.8,38.9,30.29,South,180,6.0,8.0,57,0.00,,,0.00,WUHU21623XXSP,2013-01-05 22:05:00,
2013-01-05 16:07:00,53.8,38.9,30.29,SSW,201,3.0,8.0,57,0.00,,,0.00,WUHU21623XXSP,2013-01-05 22:07:00,
2013-01-05 16:08:00,53.8,38.9,30.29,SSE,157,4.0,8.0,57,0.00,,,0.00,WUHU21623XXSP,2013-01-05 22:08:00,
2013-01-05 16:09:00,53.8,38.9,30.29,SSE,157,5.0,8.0,57,0.00,,,0.00,WUHU21623XXSP,2013-01-05 22:09:00,
2013-01-05 16:10:00,54.0,39.0,30.29,SW,225,6.0,8.0,57,0.00,,,0.00,WUHU21623XXSP,2013-01-05 22:10:00,
2013-01-05 16:12:00,54.0,39.0,30.29,SW,221,4.0,8.0,57,0.00,,,0.00,WUHU21623XXSP,2013-01-05 22:12:00,
2013-01-05 16:13:00,54.0,39.0,30.29,SW,224,3.0,8.0,57,0.00,,,0.00,WUHU21623XXSP,2013-01-05 22:13:00,
2013-01-05 16:14:00,54.0,39.0,30.29,SW,233,2.0,8.0,57,0.00,,,0.00,WUHU21623XXSP,2013-01-05 22:14:00,
2013-01-05 16:15:00,54.0,39.0,30.29,WSW,248,2.0,6.0,57,0.00,,,0.00,WUHU21623XXSP,2013-01-05 22:15:00,
2013-01-05 16:17:00,54.0,39.0,30.30,SW,218,5.0,6.0,57,0.00,,,0.00,WUHU21623XXSP,2013-01-05 22:17:00,
2013-01-05 16:18:00,54.1,39.2,30.30,SSW,207,4.0,6.0,57,0.00,,,0.00,WUHU21623XXSP,2013-01-05 22:18:00,
2013-01-05 16:19:00,54.1,39.2,30.30,SW,217,3.0,6.0,57,0.00,,,0.00,WUHU21623XXSP,2013-01-05 22:19:00,
2013-01-05 16:20:00,54.1,39.2,30.30,SSW,202,4.0,6.0,57,0.00,,,0.00,WUHU21623XXSP,2013-01-05 22:20:00,
2013-01-05 16:23:00,54.1,39.2,30.30,SW,225,2.0,6.0,57,0.00,,,0.00,WUHU21623XXSP,2013-01-05 22:23:00,
2013-01-05 16:24:00,54.1,39.2,30.30,South,180,3.0,6.0,57,0.00,,,0.00,WUHU21623XXSP,2013-01-05 22:24:00,
2013-01-05 16:26:00,54.1,39.2,30.30,SSW,202,5.0,6.0,57,0.00,,,0.00,WUHU21623XXSP,2013-01-05 22:26:00,
2013-01-05 16:28:00,54.3,39.3,30.30,South,180,1.0,5.0,57,0.00,,,0.00,WUHU21623XXSP,2013-01-05 22:28:00,
2013-01-05 16:29:00,54.3,39.3,30.30,SSW,210,3.0,5.0,57,0.00,,,0.00,WUHU21623XXSP,2013-01-05 22:29:00,
2013-01-05 16:31:00,54.3,39.3,30.30,SW,225,2.0,5.0,57,0.00,,,0.00,WUHU21623XXSP,2013-01-05 22:31:00,
2013-01-05 16:33:00,54.3,39.3,30.30,SW,221,3.0,5.0,57,0.00,,,0.00,WUHU21623XXSP,2013-01-05 22:33:00,
2013-01-05 16:34:00,54.3,39.3,30.30,WSW,244,3.0,6.0,57,0.00,,,0.00,WUHU21623XXSP,2013-01-05 22:34:00,
2013-01-05 16:36:00,54.3,38.9,30.30,WSW,241,3.0,6.0,56,0.00,,,0.00,WUHU21623XXSP,2013-01-05 22:36:00,
2013-01-05 16:38:00,54.3,38.9,30.30,South,180,6.0,6.0,56,0.00,,,0.00,WUHU21623XXSP,2013-01-05 22:38:00,
2013-01-05 16:39:00,54.3,38.9,30.30,SSW,194,4.0,6.0,56,0.00,,,0.00,WUHU21623XXSP,2013-01-05 22:39:00,
2013-01-05 16:41:00,54.3,38.9,30.30,SSW,209,2.0,6.0,56,0.00,,,0.00,WUHU21623XXSP,2013-01-05 22:41:00,
2013-01-05 16:43:00,54.3,38.9,30.30,SW,222,3.0,6.0,56,0.00,,,0.00,WUHU21623XXSP,2013-01-05 22:43:00,
2013-01-05 16:44:00,54.3,38.9,30.30,SW,225,4.0,6.0,56,0.00,,,0.00,WUHU21623XXSP,2013-01-05 22:44:00,
2013-01-05 16:46:00,54.3,38.9,30.30,SW,217,3.0,6.0,56,0.00,,,0.00,WUHU21623XXSP,2013-01-05 22:46:00,
2013-01-05 16:48:00,54.3,38.9,30.30,South,184,3.0,6.0,56,0.00,,,0.00,WUHU21623XXSP,2013-01-05 22:48:00,
2013-01-05 16:49:00,54.3,38.9,30.30,South,181,3.0,6.0,56,0.00,,,0.00,WUHU21623XXSP,2013-01-05 22:49:00,
2013-01-05 16:50:00,54.3,38.9,30.30,SSE,157,5.0,10.0,56,0.00,,,0.00,WUHU21623XXSP,2013-01-05 22:50:00,
2013-01-05 16:51:00,54.3,38.9,30.30,SSE,150,5.0,10.0,56,0.00,,,0.00,WUHU21623XXSP,2013-01-05 22:51:00,
2013-01-05 16:54:00,54.3,38.9,30.30,SSE,159,3.0,10.0,56,0.00,,,0.00,WUHU21623XXSP,2013-01-05 22:54:00,
2013-01-05 16:55:00,54.3,38.9,30.30,SSE,158,3.0,10.0,56,0.00,,,0.00,WUHU21623XXSP,2013-01-05 22:55:00,
2013-01-05 16:57:00,54.5,39.0,30.30,SSE,157,3.0,10.0,56,0.00,,,0.00,WUHU21623XXSP,2013-01-05 22:57:00,
2013-01-05 16:59:00,54.5,39.0,30.30,SSE,157,3.0,10.0,56,0.00,,,0.00,WUHU21623XXSP,2013-01-05 22:59:00,
2013-01-05 17:00:00,54.5,39.0,30.30,ESE,120,2.0,5.0,56,0.00,,,0.00,WUHU21623XXSP,2013-01-05 23:00:00,
2013-01-05 17:02:00,54.5,39.0,30.30,SSE,157,3.0,4.0,56,0.00,,,0.00,WUHU21623XXSP,2013-01-05 23:02:00,
2013-01-05 17:04:00,54.7,39.2,30.30,SSE,157,3.0,4.0,56,0.00,,,0.00,WUHU21623XXSP,2013-01-05 23:04:00,
2013-01-05 17:05:00,54.7,39.2,30.30,SSE,157,3.0,4.0,56,0.00,,,0.00,WUHU21623XXSP,2013-01-05 23:05:00,
2013-01-05 17:07:00,54.7,39.2,30.30,SSE,149,3.0,4.0,56,0.00,,,0.00,WUHU21623XXSP,2013-01-05 23:07:00,
2013-01-05 17:09:00,54.7,39.2,30.30,SSE,156,3.0,4.0,56,0.00,,,0.00,WUHU21623XXSP,2013-01-05 23:09:00,
2013-01-05 17:11:00,54.9,39.4,30.30,SSE,157,2.0,4.0,56,0.00,,,0.00,WUHU21623XXSP,2013-01-05 23:11:00,
2013-01-05 17:12:00,54.9,39.4,30.30,SSE,157,4.0,5.0,56,0.00,,,0.00,WUHU21623XXSP,2013-01-05 23:12:00,
2013-01-05 17:14:00,54.9,39.4,30.30,SSE,160,3.0,5.0,56,0.00,,,0.00,WUHU21623XXSP,2013-01-05 23:14:00,
2013-01-05 17:16:00,54.9,39.4,30.30,SSE,164,2.0,5.0,56,0.00,,,0.00,WUHU21623XXSP,2013-01-05 23:16:00,
2013-01-05 17:17:00,54.9,39.4,30.30,SSE,151,2.0,5.0,56,0.00,,,0.00,WUHU21623XXSP,2013-01-05 23:17:00,
2013-01-05 17:19:00,54.9,39.4,30.30,SSE,157,2.0,5.0,56,0.00,,,0.00,WUHU21623XXSP,2013-01-05 23:19:00,
2013-01-05 17:21:00,55.0,39.5,30.30,SSE,157,2.0,5.0,56,0.00,,,0.00,WUHU21623XXSP,2013-01-05 23:21:00,
2013-01-05 17:23:00,54.9,39.4,30.30,SSE,157,2.0,4.0,56,0.00,,,0.00,WUHU21623XXSP,2013-01-05 23:23:00,
2013-01-05 17:24:00,54.9,39.4,30.30,SE,135,2.0,4.0,56,0.00,,,0.00,WUHU21623XXSP,2013-01-05 23:24:00,
2013-01-05 17:26:00,54.9,39.4,30.30,South,180,3.0,4.0,56,0.00,,,0.00,WUHU21623XXSP,2013-01-05 23:26:00,
2013-01-05 17:28:00,54.9,39.4,30.30,South,174,2.0,4.0,56,0.00,,,0.00,WUHU21623XXSP,2013-01-05 23:28:00,
2013-01-05 17:29:00,54.9,39.4,30.30,SSE,157,2.0,4.0,56,0.00,,,0.00,WUHU21623XXSP,2013-01-05 23:29:00,
2013-01-05 17:31:00,54.9,39.4,30.30,SSE,157,2.0,3.0,56,0.00,,,0.00,WUHU21623XXSP,2013-01-05 23:31:00,
2013-01-05 17:33:00,54.9,39.4,30.30,SSE,166,2.0,4.0,56,0.00,,,0.00,WUHU21623XXSP,2013-01-05 23:33:00,
2013-01-05 17:34:00,54.9,39.4,30.30,SE,135,3.0,4.0,56,0.00,,,0.00,WUHU21623XXSP,2013-01-05 23:34:00,
2013-01-05 17:35:00,54.7,39.2,30.30,SSE,157,3.0,4.0,56,0.00,,,0.00,WUHU21623XXSP,2013-01-05 23:35:00,
2013-01-05 17:36:00,54.7,39.2,30.30,SSE,157,2.0,4.0,56,0.00,,,0.00,WUHU21623XXSP,2013-01-05 23:36:00,
2013-01-05 17:38:00,54.7,39.2,30.30,SSE,153,3.0,4.0,56,0.00,,,0.00,WUHU21623XXSP,2013-01-05 23:38:00,
2013-01-05 17:39:00,54.7,39.2,30.30,SSE,162,2.0,4.0,56,0.00,,,0.00,WUHU21623XXSP,2013-01-05 23:39:00,
2013-01-05 17:40:00,54.7,39.2,30.31,SSE,165,2.0,4.0,56,0.00,,,0.00,WUHU21623XXSP,2013-01-05 23:40:00,
2013-01-05 17:41:00,54.7,39.2,30.31,SSE,157,2.0,4.0,56,0.00,,,0.00,WUHU21623XXSP,2013-01-05 23:41:00,
2013-01-05 17:43:00,54.7,39.2,30.31,SSE,150,2.0,4.0,56,0.00,,,0.00,WUHU21623XXSP,2013-01-05 23:43:00,
2013-01-05 17:44:00,54.7,39.2,30.31,SE,135,2.0,4.0,56,0.00,,,0.00,WUHU21623XXSP,2013-01-05 23:44:00,
2013-01-05 17:45:00,54.7,39.2,30.31,SE,135,2.0,4.0,56,0.00,,,0.00,WUHU21623XXSP,2013-01-05 23:45:00,
2013-01-05 17:47:00,54.7,39.2,30.31,SE,138,1.0,4.0,56,0.00,,,0.00,WUHU21623XXSP,2013-01-05 23:47:00,
2013-01-05 17:48:00,54.7,39.2,30.31,SSE,157,2.0,3.0,56,0.00,,,0.00,WUHU21623XXSP,2013-01-05 23:48:00,
2013-01-05 17:50:00,54.7,39.2,30.31,SSE,157,1.0,2.0,56,0.00,,,0.00,WUHU21623XXSP,2013-01-05 23:50:00,
2013-01-05 17:52:00,54.7,39.2,30.30,SSE,157,2.0,2.0,56,0.00,,,0.00,WUHU21623XXSP,2013-01-05 23:52:00,
2013-01-05 17:53:00,54.7,39.2,30.30,SSE,155,2.0,2.0,56,0.00,,,0.00,WUHU21623XXSP,2013-01-05 23:53:00,
2013-01-05 17:55:00,54.7,39.2,30.31,SSE,157,2.0,3.0,56,0.00,,,0.00,WUHU21623XXSP,2013-01-05 23:55:00,
2013-01-05 17:57:00,54.5,39.0,30.31,SSE,153,2.0,3.0,56,0.00,,,0.00,WUHU21623XXSP,2013-01-05 23:57:00,
2013-01-05 17:59:00,54.5,39.0,30.31,SSE,150,2.0,3.0,56,0.00,,,0.00,WUHU21623XXSP,2013-01-05 23:59:00,
2013-01-05 18:00:00,54.5,39.0,30.31,SSE,157,2.0,3.0,56,0.00,,,0.00,WUHU21623XXSP,2013-01-06 00:00:00,
2013-01-05 18:02:00,54.5,39.0,30.31,SSE,155,2.0,3.0,56,0.00,,,0.00,WUHU21623XXSP,2013-01-06 00:02:00,
2013-01-05 18:04:00,54.5,39.0,30.31,SSE,157,1.0,3.0,56,0.00,,,0.00,WUHU21623XXSP,2013-01-06 00:04:00,
2013-01-05 18:05:00,54.5,39.0,30.31,SSE,164,2.0,3.0,56,0.00,,,0.00,WUHU21623XXSP,2013-01-06 00:05:00,
2013-01-05 18:06:00,54.5,39.0,30.31,SSE,165,2.0,3.0,56,0.00,,,0.00,WUHU21623XXSP,2013-01-06 00:06:00,
2013-01-05 18:07:00,54.3,38.9,30.31,SSE,157,3.0,3.0,56,0.00,,,0.00,WUHU21623XXSP,2013-01-06 00:07:00,
2013-01-05 18:09:00,54.3,38.9,30.31,South,180,3.0,3.0,56,0.00,,,0.00,WUHU21623XXSP,2013-01-06 00:09:00,
2013-01-05 18:10:00,54.3,38.9,30.31,SE,146,2.0,3.0,56,0.00,,,0.00,WUHU21623XXSP,2013-01-06 00:10:00,
2013-01-05 18:11:00,54.3,38.9,30.31,SSE,147,2.0,3.0,56,0.00,,,0.00,WUHU21623XXSP,2013-01-06 00:11:00,
2013-01-05 18:13:00,54.3,38.9,30.31,SE,130,2.0,3.0,56,0.00,,,0.00,WUHU21623XXSP,2013-01-06 00:13:00,
2013-01-05 18:14:00,54.3,38.9,30.31,SE,127,3.0,3.0,56,0.00,,,0.00,WUHU21623XXSP,2013-01-06 00:14:00,
2013-01-05 18:15:00,54.3,38.9,30.31,SSE,157,4.0,4.0,56,0.00,,,0.00,WUHU21623XXSP,2013-01-06 00:15:00,
2013-01-05 18:16:00,54.3,38.9,30.31,SE,135,3.0,4.0,56,0.00,,,0.00,WUHU21623XXSP,2013-01-06 00:16:00,
2013-01-05 18:18:00,54.1,38.7,30.31,SSE,157,0.0,4.0,56,0.00,,,0.00,WUHU21623XXSP,2013-01-06 00:18:00,
2013-01-05 18:19:00,54.1,38.7,30.31,SE,135,2.0,4.0,56,0.00,,,0.00,WUHU21623XXSP,2013-01-06 00:19:00,
2013-01-05 18:20:00,54.1,38.7,30.31,SE,135,2.0,4.0,56,0.00,,,0.00,WUHU21623XXSP,2013-01-06 00:20:00,
2013-01-05 18:21:00,54.1,38.7,30.31,SE,135,2.0,4.0,56,0.00,,,0.00,WUHU21623XXSP,2013-01-06 00:21:00,
2013-01-05 18:23:00,54.1,38.7,30.31,SE,135,2.0,4.0,56,0.00,,,0.00,WUHU21623XXSP,2013-01-06 00:23:00,
2013-01-05 18:24:00,54.0,38.6,30.31,SE,135,2.0,4.0,56,0.00,,,0.00,WUHU21623XXSP,2013-01-06 00:24:00,
2013-01-05 18:26:00,54.0,38.6,30.32,SSE,149,2.0,3.0,56,0.00,,,0.00,WUHU21623XXSP,2013-01-06 00:26:00,
2013-01-05 18:28:00,54.0,38.6,30.32,SE,135,2.0,3.0,56,0.00,,,0.00,WUHU21623XXSP,2013-01-06 00:28:00,
2013-01-05 18:29:00,54.0,38.6,30.31,SE,139,2.0,3.0,56,0.00,,,0.00,WUHU21623XXSP,2013-01-06 00:29:00,
2013-01-05 18:31:00,54.0,38.6,30.32,SE,142,2.0,3.0,56,0.00,,,0.00,WUHU21623XXSP,2013-01-06 00:31:00,
2013-01-05 18:33:00,54.0,38.6,30.31,SE,135,3.0,3.0,56,0.00,,,0.00,WUHU21623XXSP,2013-01-06 00:33:00,
2013-01-05 18:35:00,54.0,38.6,30.31,SE,137,2.0,3.0,56,0.00,,,0.00,WUHU21623XXSP,2013-01-06 00:35:00,
2013-01-05 18:36:00,53.8,38.4,30.32,SE,140,2.0,3.0,56,0.00,,,0.00,WUHU21623XXSP,2013-01-06 00:36:00,
2013-01-05 18:39:00,53.8,38.4,30.31,SE,135,2.0,3.0,56,0.00,,,0.00,WUHU21623XXSP,2013-01-06 00:39:00,
2013-01-05 18:40:00,53.8,38.4,30.32,SE,140,2.0,3.0,56,0.00,,,0.00,WUHU21623XXSP,2013-01-06 00:40:00,
2013-01-05 18:41:00,53.8,38.4,30.32,SSE,157,3.0,3.0,56,0.00,,,0.00,WUHU21623XXSP,2013-01-06 00:41:00,
2013-01-05 18:44:00,53.8,38.4,30.32,SE,135,3.0,5.0,56,0.00,,,0.00,WUHU21623XXSP,2013-01-06 00:44:00,
2013-01-05 18:45:00,53.8,38.4,30.31,SE,141,3.0,5.0,56,0.00,,,0.00,WUHU21623XXSP,2013-01-06 00:45:00,
2013-01-05 18:46:00,53.8,38.4,30.32,SSE,157,2.0,5.0,56,0.00,,,0.00,WUHU21623XXSP,2013-01-06 00:46:00,
2013-01-05 18:49:00,53.4,38.0,30.32,SSE,157,4.0,5.0,56,0.00,,,0.00,WUHU21623XXSP,2013-01-06 00:49:00,
2013-01-05 18:50:00,53.4,38.0,30.32,SE,135,4.0,5.0,56,0.00,,,0.00,WUHU21623XXSP,2013-01-06 00:50:00,
2013-01-05 18:51:00,53.4,38.0,30.32,SSE,157,2.0,5.0,56,0.00,,,0.00,WUHU21623XXSP,2013-01-06 00:51:00,
2013-01-05 18:54:00,53.4,38.0,30.32,SSE,150,2.0,4.0,56,0.00,,,0.00,WUHU21623XXSP,2013-01-06 00:54:00,
2013-01-05 18:55:00,53.4,38.0,30.32,SSE,157,1.0,4.0,56,0.00,,,0.00,WUHU21623XXSP,2013-01-06 00:55:00,
2013-01-05 18:56:00,53.4,38.0,30.32,SSE,157,2.0,4.0,56,0.00,,,0.00,WUHU21623XXSP,2013-01-06 00:56:00,
2013-01-05 18:59:00,53.4,38.0,30.32,SSE,157,2.0,4.0,56,0.00,,,0.00,WUHU21623XXSP,2013-01-06 00:59:00,
2013-01-05 19:01:00,53.4,38.0,30.32,SSE,154,2.0,3.0,56,0.00,,,0.00,WUHU21623XXSP,2013-01-06 01:01:00,
2013-01-05 19:04:00,53.4,38.0,30.32,SSE,162,2.0,3.0,56,0.00,,,0.00,WUHU21623XXSP,2013-01-06 01:04:00,
2013-01-05 19:06:00,53.4,38.0,30.32,SSE,153,2.0,4.0,56,0.00,,,0.00,WUHU21623XXSP,2013-01-06 01:06:00,
2013-01-05 19:07:00,53.4,38.0,30.32,SSE,157,3.0,4.0,56,0.00,,,0.00,WUHU21623XXSP,2013-01-06 01:07:00,
2013-01-05 19:09:00,53.4,38.0,30.32,SE,135,3.0,4.0,56,0.00,,,0.00,WUHU21623XXSP,2013-01-06 01:09:00,
2013-01-05 19:11:00,53.4,38.0,30.32,SSE,157,3.0,4.0,56,0.00,,,0.00,WUHU21623XXSP,2013-01-06 01:11:00,
2013-01-05 19:12:00,53.4,38.0,30.32,SSE,157,4.0,4.0,56,0.00,,,0.00,WUHU21623XXSP,2013-01-06 01:12:00,
2013-01-05 19:15:00,53.4,38.0,30.32,South,180,3.0,4.0,56,0.00,,,0.00,WUHU21623XXSP,2013-01-06 01:15:00,
2013-01-05 19:16:00,53.4,38.0,30.32,SSE,157,5.0,5.0,56,0.00,,,0.00,WUHU21623XXSP,2013-01-06 01:16:00,
2013-01-05 19:17:00,53.4,38.0,30.32,SSE,157,4.0,5.0,56,0.00,,,0.00,WUHU21623XXSP,2013-01-06 01:17:00,
2013-01-05 19:18:00,53.4,38.0,30.32,SSE,156,3.0,5.0,56,0.00,,,0.00,WUHU21623XXSP,2013-01-06 01:18:00,
2013-01-05 19:20:00,53.4,38.0,30.32,SSE,149,3.0,5.0,56,0.00,,,0.00,WUHU21623XXSP,2013-01-06 01:20:00,
2013-01-05 19:21:00,53.2,37.9,30.33,SSE,157,3.0,5.0,56,0.00,,,0.00,WUHU21623XXSP,2013-01-06 01:21:00,
2013-01-05 19:22:00,53.2,37.9,30.33,SSE,157,2.0,5.0,56,0.00,,,0.00,WUHU21623XXSP,2013-01-06 01:22:00,
2013-01-05 19:23:00,53.2,37.9,30.33,SSE,157,2.0,5.0,56,0.00,,,0.00,WUHU21623XXSP,2013-01-06 01:23:00,
2013-01-05 19:25:00,53.2,38.3,30.32,SSE,167,3.0,5.0,57,0.00,,,0.00,WUHU21623XXSP,2013-01-06 01:25:00,
2013-01-05 19:26:00,53.2,38.3,30.33,SSE,157,2.0,5.0,57,0.00,,,0.00,WUHU21623XXSP,2013-01-06 01:26:00,
2013-01-05 19:27:00,53.2,38.3,30.33,SSE,157,3.0,5.0,57,0.00,,,0.00,WUHU21623XXSP,2013-01-06 01:27:00,
2013-01-05 19:28:00,53.2,38.3,30.33,SSE,157,2.0,5.0,57,0.00,,,0.00,WUHU21623XXSP,2013-01-06 01:28:00,
2013-01-05 19:30:00,53.2,38.3,30.33,SE,143,2.0,4.0,57,0.00,,,0.00,WUHU21623XXSP,2013-01-06 01:30:00,
2013-01-05 19:31:00,53.2,38.3,30.33,SSE,157,2.0,4.0,57,0.00,,,0.00,WUHU21623XXSP,2013-01-06 01:31:00,
2013-01-05 19:33:00,53.2,38.3,30.33,SSE,157,3.0,4.0,57,0.00,,,0.00,WUHU21623XXSP,2013-01-06 01:33:00,
2013-01-05 19:35:00,53.2,38.3,30.33,South,176,3.0,4.0,57,0.00,,,0.00,WUHU21623XXSP,2013-01-06 01:35:00,
2013-01-05 19:37:00,53.1,38.2,30.33,South,173,2.0,4.0,57,0.00,,,0.00,WUHU21623XXSP,2013-01-06 01:37:00,
2013-01-05 19:38:00,53.1,38.2,30.33,SSW,202,2.0,4.0,57,0.00,,,0.00,WUHU21623XXSP,2013-01-06 01:38:00,
2013-01-05 19:39:00,52.9,38.0,30.33,South,180,2.0,4.0,57,0.00,,,0.00,WUHU21623XXSP,2013-01-06 01:39:00,
2013-01-05 19:40:00,52.9,38.0,30.33,South,180,3.0,4.0,57,0.00,,,0.00,WUHU21623XXSP,2013-01-06 01:40:00,
2013-01-05 19:42:00,52.9,38.0,30.33,SSE,157,3.0,4.0,57,0.00,,,0.00,WUHU21623XXSP,2013-01-06 01:42:00,
2013-01-05 19:43:00,52.9,38.0,30.33,SSE,157,2.0,4.0,57,0.00,,,0.00,WUHU21623XXSP,2013-01-06 01:43:00,
2013-01-05 19:44:00,52.9,38.0,30.33,SSE,163,2.0,3.0,57,0.00,,,0.00,WUHU21623XXSP,2013-01-06 01:44:00,
2013-01-05 19:45:00,52.9,38.0,30.33,SSE,153,2.0,3.0,57,0.00,,,0.00,WUHU21623XXSP,2013-01-06 01:45:00,
2013-01-05 19:47:00,52.9,38.0,30.33,SE,135,3.0,3.0,57,0.00,,,0.00,WUHU21623XXSP,2013-01-06 01:47:00,
2013-01-05 19:49:00,52.9,38.0,30.33,SSW,202,0.0,3.0,57,0.00,,,0.00,WUHU21623XXSP,2013-01-06 01:49:00,
2013-01-05 19:50:00,52.9,38.0,30.33,South,180,2.0,3.0,57,0.00,,,0.00,WUHU21623XXSP,2013-01-06 01:50:00,
2013-01-05 19:52:00,52.9,38.0,30.33,SSW,202,2.0,3.0,57,0.00,,,0.00,WUHU21623XXSP,2013-01-06 01:52:00,
2013-01-05 19:54:00,52.9,38.0,30.33,SSE,157,0.0,3.0,57,0.00,,,0.00,WUHU21623XXSP,2013-01-06 01:54:00,
2013-01-05 19:55:00,52.9,38.0,30.33,South,180,1.0,3.0,57,0.00,,,0.00,WUHU21623XXSP,2013-01-06 01:55:00,
2013-01-05 19:56:00,52.9,38.0,30.33,South,180,1.0,3.0,57,0.00,,,0.00,WUHU21623XXSP,2013-01-06 01:56:00,
2013-01-05 19:57:00,52.9,38.0,30.33,SSE,157,2.0,3.0,57,0.00,,,0.00,WUHU21623XXSP,2013-01-06 01:57:00,
2013-01-05 19:59:00,52.9,38.0,30.33,South,180,0.0,3.0,57,0.00,,,0.00,WUHU21623XXSP,2013-01-06 01:59:00,
2013-01-05 20:00:00,52.7,37.8,30.33,South,174,2.0,3.0,57,0.00,,,0.00,WUHU21623XXSP,2013-01-06 02:00:00,
2013-01-05 20:01:00,52.7,37.8,30.33,South,174,2.0,3.0,57,0.00,,,0.00,WUHU21623XXSP,2013-01-06 02:01:00,
2013-01-05 20:02:00,52.7,37.8,30.33,South,180,2.0,3.0,57,0.00,,,0.00,WUHU21623XXSP,2013-01-06 02:02:00,
2013-01-05 20:04:00,52.7,37.8,30.33,South,180,2.0,3.0,57,0.00,,,0.00,WUHU21623XXSP,2013-01-06 02:04:00,
2013-01-05 20:05:00,52.7,37.8,30.33,SSE,167,2.0,3.0,57,0.00,,,0.00,WUHU21623XXSP,2013-01-06 02:05:00,
2013-01-05 20:06:00,52.7,37.8,30.33,SSE,166,1.0,3.0,57,0.00,,,0.00,WUHU21623XXSP,2013-01-06 02:06:00,
2013-01-05 20:07:00,52.7,37.8,30.33,South,169,1.0,3.0,57,0.00,,,0.00,WUHU21623XXSP,2013-01-06 02:07:00,
2013-01-05 20:09:00,52.5,37.6,30.33,South,180,0.0,3.0,57,0.00,,,0.00,WUHU21623XXSP,2013-01-06 02:09:00,
2013-01-05 20:11:00,52.5,37.6,30.33,SSE,157,0.0,3.0,57,0.00,,,0.00,WUHU21623XXSP,2013-01-06 02:11:00,
2013-01-05 20:12:00,52.5,37.6,30.33,SSE,157,0.0,3.0,57,0.00,,,0.00,WUHU21623XXSP,2013-01-06 02:12:00,
2013-01-05 20:15:00,52.5,37.6,30.33,South,180,0.0,2.0,57,0.00,,,0.00,WUHU21623XXSP,2013-01-06 02:15:00,
2013-01-05 20:16:00,52.5,37.6,30.33,South,180,0.0,2.0,57,0.00,,,0.00,WUHU21623XXSP,2013-01-06 02:16:00,
2013-01-05 20:17:00,52.5,37.6,30.33,SSE,157,2.0,2.0,57,0.00,,,0.00,WUHU21623XXSP,2013-01-06 02:17:00,
2013-01-05 20:20:00,52.5,37.6,30.33,SSE,166,1.0,2.0,57,0.00,,,0.00,WUHU21623XXSP,2013-01-06 02:20:00,
2013-01-05 20:21:00,52.5,37.6,30.33,SSE,157,2.0,2.0,57,0.00,,,0.00,WUHU21623XXSP,2013-01-06 02:21:00,
2013-01-05 20:22:00,52.3,37.5,30.33,SSE,157,0.0,2.0,57,0.00,,,0.00,WUHU21623XXSP,2013-01-06 02:22:00,
2013-01-05 20:25:00,52.3,37.5,30.33,South,180,0.0,2.0,57,0.00,,,0.00,WUHU21623XXSP,2013-01-06 02:25:00,
2013-01-05 20:26:00,52.3,37.5,30.33,South,180,0.0,2.0,57,0.00,,,0.00,WUHU21623XXSP,2013-01-06 02:26:00,
2013-01-05 20:27:00,52.3,37.5,30.33,SSE,157,0.0,2.0,57,0.00,,,0.00,WUHU21623XXSP,2013-01-06 02:27:00,
2013-01-05 20:30:00,52.3,37.5,30.33,South,180,0.0,0.0,57,0.00,,,0.00,WUHU21623XXSP,2013-01-06 02:30:00,
2013-01-05 20:31:00,52.2,37.3,30.33,South,180,0.0,0.0,57,0.00,,,0.00,WUHU21623XXSP,2013-01-06 02:31:00,
2013-01-05 20:33:00,52.2,37.3,30.33,South,180,0.0,0.0,57,0.00,,,0.00,WUHU21623XXSP,2013-01-06 02:33:00,
2013-01-05 20:35:00,52.2,37.3,30.33,SSW,202,0.0,0.0,57,0.00,,,0.00,WUHU21623XXSP,2013-01-06 02:35:00,
2013-01-05 20:36:00,52.2,37.3,30.33,SSW,202,0.0,0.0,57,0.00,,,0.00,WUHU21623XXSP,2013-01-06 02:36:00,
2013-01-05 20:38:00,52.2,37.3,30.33,South,180,0.0,0.0,57,0.00,,,0.00,WUHU21623XXSP,2013-01-06 02:38:00,
2013-01-05 20:41:00,52.0,37.1,30.33,South,180,0.0,0.0,57,0.00,,,0.00,WUHU21623XXSP,2013-01-06 02:41:00,
2013-01-05 20:43:00,52.0,37.1,30.33,SSE,157,0.0,0.0,57,0.00,,,0.00,WUHU21623XXSP,2013-01-06 02:43:00,
2013-01-05 20:46:00,52.0,37.1,30.33,SSE,157,0.0,0.0,57,0.00,,,0.00,WUHU21623XXSP,2013-01-06 02:46:00,
2013-01-05 20:47:00,52.0,37.1,30.33,SSE,157,0.0,0.0,57,0.00,,,0.00,WUHU21623XXSP,2013-01-06 02:47:00,
2013-01-05 20:48:00,52.0,37.1,30.33,SSE,157,0.0,0.0,57,0.00,,,0.00,WUHU21623XXSP,2013-01-06 02:48:00,
2013-01-05 20:51:00,51.8,37.0,30.33,SSE,157,0.0,0.0,57,0.00,,,0.00,WUHU21623XXSP,2013-01-06 02:51:00,
2013-01-05 20:52:00,51.8,37.0,30.33,SSE,157,0.0,0.0,57,0.00,,,0.00,WUHU21623XXSP,2013-01-06 02:52:00,
2013-01-05 20:53:00,51.8,37.0,30.33,SSE,157,0.0,0.0,57,0.00,,,0.00,WUHU21623XXSP,2013-01-06 02:53:00,
2013-01-05 20:56:00,51.8,37.0,30.33,SSE,157,0.0,0.0,57,0.00,,,0.00,WUHU21623XXSP,2013-01-06 02:56:00,
2013-01-05 20:57:00,51.6,36.8,30.33,South,180,0.0,0.0,57,0.00,,,0.00,WUHU21623XXSP,2013-01-06 02:57:00,
2013-01-05 20:58:00,51.6,36.8,30.33,SSE,157,0.0,0.0,57,0.00,,,0.00,WUHU21623XXSP,2013-01-06 02:58:00,
2013-01-05 21:01:00,51.6,36.8,30.33,South,180,0.0,0.0,57,0.00,,,0.00,WUHU21623XXSP,2013-01-06 03:01:00,
2013-01-05 21:02:00,51.6,36.8,30.33,SSE,157,0.0,0.0,57,0.00,,,0.00,WUHU21623XXSP,2013-01-06 03:02:00,
2013-01-05 21:03:00,51.6,36.8,30.33,SSE,157,0.0,0.0,57,0.00,,,0.00,WUHU21623XXSP,2013-01-06 03:03:00,
2013-01-05 21:07:00,51.6,36.8,30.33,South,180,0.0,0.0,57,0.00,,,0.00,WUHU21623XXSP,2013-01-06 03:07:00,
2013-01-05 21:08:00,51.6,36.8,30.33,South,180,0.0,0.0,57,0.00,,,0.00,WUHU21623XXSP,2013-01-06 03:08:00,
2013-01-05 21:12:00,51.4,36.6,30.33,South,180,0.0,0.0,57,0.00,,,0.00,WUHU21623XXSP,2013-01-06 03:12:00,
2013-01-05 21:13:00,51.4,36.6,30.33,South,180,0.0,0.0,57,0.00,,,0.00,WUHU21623XXSP,2013-01-06 03:13:00,
2013-01-05 21:17:00,51.4,36.6,30.33,South,180,0.0,0.0,57,0.00,,,0.00,WUHU21623XXSP,2013-01-06 03:17:00,
2013-01-05 21:18:00,51.4,36.6,30.33,SSW,202,0.0,0.0,57,0.00,,,0.00,WUHU21623XXSP,2013-01-06 03:18:00,
2013-01-05 21:22:00,51.3,36.5,30.33,SSW,202,0.0,0.0,57,0.00,,,0.00,WUHU21623XXSP,2013-01-06 03:22:00,
2013-01-05 21:23:00,51.3,36.5,30.33,SSW,202,0.0,0.0,57,0.00,,,0.00,WUHU21623XXSP,2013-01-06 03:23:00,
2013-01-05 21:27:00,51.1,36.3,30.33,SSW,202,0.0,0.0,57,0.00,,,0.00,WUHU21623XXSP,2013-01-06 03:27:00,
2013-01-05 21:28:00,51.1,36.3,30.33,SSW,202,0.0,0.0,57,0.00,,,0.00,WUHU21623XXSP,2013-01-06 03:28:00,
2013-01-05 21:29:00,51.1,36.3,30.33,SSW,202,0.0,0.0,57,0.00,,,0.00,WUHU21623XXSP,2013-01-06 03:29:00,
2013-01-05 21:32:00,50.9,36.1,30.33,SSW,202,0.0,0.0,57,0.00,,,0.00,WUHU21623XXSP,2013-01-06 03:32:00,
2013-01-05 21:33:00,50.9,36.1,30.33,SSW,202,0.0,0.0,57,0.00,,,0.00,WUHU21623XXSP,2013-01-06 03:33:00,
2013-01-05 21:34:00,50.9,36.1,30.33,SSW,202,0.0,0.0,57,0.00,,,0.00,WUHU21623XXSP,2013-01-06 03:34:00,
2013-01-05 21:38:00,50.7,36.0,30.33,SSW,202,0.0,0.0,57,0.00,,,0.00,WUHU21623XXSP,2013-01-06 03:38:00,
2013-01-05 21:39:00,50.7,36.0,30.33,SSW,202,0.0,0.0,57,0.00,,,0.00,WUHU21623XXSP,2013-01-06 03:39:00,
2013-01-05 21:43:00,50.7,36.0,30.33,SSW,202,0.0,0.0,57,0.00,,,0.00,WUHU21623XXSP,2013-01-06 03:43:00,
2013-01-05 21:44:00,50.5,35.8,30.33,SSW,202,0.0,0.0,57,0.00,,,0.00,WUHU21623XXSP,2013-01-06 03:44:00,
2013-01-05 21:48:00,50.5,36.3,30.33,SSW,202,0.0,0.0,58,0.00,,,0.00,WUHU21623XXSP,2013-01-06 03:48:00,
2013-01-05 21:49:00,50.5,36.3,30.33,SW,225,0.0,0.0,58,0.00,,,0.00,WUHU21623XXSP,2013-01-06 03:49:00,
2013-01-05 21:53:00,50.4,36.1,30.33,WSW,247,0.0,0.0,58,0.00,,,0.00,WUHU21623XXSP,2013-01-06 03:53:00,
2013-01-05 21:54:00,50.4,36.1,30.33,WSW,247,0.0,0.0,58,0.00,,,0.00,WUHU21623XXSP,2013-01-06 03:54:00,
2013-01-05 21:58:00,50.2,35.9,30.33,WSW,247,0.0,0.0,58,0.00,,,0.00,WUHU21623XXSP,2013-01-06 03:58:00,
2013-01-05 21:59:00,50.2,35.9,30.33,West,270,0.0,0.0,58,0.00,,,0.00,WUHU21623XXSP,2013-01-06 03:59:00,
2013-01-05 22:00:00,50.2,35.9,30.33,West,270,0.0,0.0,58,0.00,,,0.00,WUHU21623XXSP,2013-01-06 04:00:00,
2013-01-05 22:03:00,50.2,35.9,30.33,West,270,0.0,0.0,58,0.00,,,0.00,WUHU21623XXSP,2013-01-06 04:03:00,
2013-01-05 22:04:00,50.2,35.9,30.33,WNW,292,0.0,0.0,58,0.00,,,0.00,WUHU21623XXSP,2013-01-06 04:04:00,
2013-01-05 22:05:00,50.0,35.8,30.33,WNW,292,0.0,0.0,58,0.00,,,0.00,WUHU21623XXSP,2013-01-06 04:05:00,
2013-01-05 22:08:00,49.8,35.6,30.33,WNW,292,0.0,0.0,58,0.00,,,0.00,WUHU21623XXSP,2013-01-06 04:08:00,
2013-01-05 22:09:00,49.8,35.6,30.33,WNW,292,0.0,0.0,58,0.00,,,0.00,WUHU21623XXSP,2013-01-06 04:09:00,
2013-01-05 22:11:00,49.8,35.6,30.33,WNW,292,0.0,0.0,58,0.00,,,0.00,WUHU21623XXSP,2013-01-06 04:11:00,
2013-01-05 22:13:00,49.8,35.6,30.34,WNW,292,0.0,0.0,58,0.00,,,0.00,WUHU21623XXSP,2013-01-06 04:13:00,
2013-01-05 22:14:00,49.8,35.6,30.34,WNW,292,0.0,0.0,58,0.00,,,0.00,WUHU21623XXSP,2013-01-06 04:14:00,
2013-01-05 22:16:00,49.8,35.6,30.34,WNW,292,0.0,0.0,58,0.00,,,0.00,WUHU21623XXSP,2013-01-06 04:16:00,
2013-01-05 22:18:00,49.8,35.6,30.34,WNW,292,0.0,0.0,58,0.00,,,0.00,WUHU21623XXSP,2013-01-06 04:18:00,
2013-01-05 22:19:00,49.8,35.6,30.34,WNW,292,0.0,0.0,58,0.00,,,0.00,WUHU21623XXSP,2013-01-06 04:19:00,
2013-01-05 22:22:00,49.6,35.4,30.34,WNW,292,0.0,0.0,58,0.00,,,0.00,WUHU21623XXSP,2013-01-06 04:22:00,
2013-01-05 22:24:00,49.6,35.4,30.34,WNW,292,0.0,0.0,58,0.00,,,0.00,WUHU21623XXSP,2013-01-06 04:24:00,
2013-01-05 22:27:00,49.6,35.4,30.34,WNW,292,0.0,0.0,58,0.00,,,0.00,WUHU21623XXSP,2013-01-06 04:27:00,
2013-01-05 22:29:00,49.5,35.3,30.34,West,270,0.0,0.0,58,0.00,,,0.00,WUHU21623XXSP,2013-01-06 04:29:00,
2013-01-05 22:32:00,49.3,35.1,30.34,WSW,247,2.0,2.0,58,0.00,,,0.00,WUHU21623XXSP,2013-01-06 04:32:00,
2013-01-05 22:34:00,49.3,35.1,30.34,WSW,247,2.0,2.0,58,0.00,,,0.00,WUHU21623XXSP,2013-01-06 04:34:00,
2013-01-05 22:35:00,49.3,35.6,30.34,WSW,247,1.0,2.0,59,0.00,,,0.00,WUHU21623XXSP,2013-01-06 04:35:00,
2013-01-05 22:37:00,49.3,35.6,30.34,WSW,247,2.0,2.0,59,0.00,,,0.00,WUHU21623XXSP,2013-01-06 04:37:00,
2013-01-05 22:39:00,49.3,35.6,30.35,WSW,247,2.0,2.0,59,0.00,,,0.00,WUHU21623XXSP,2013-01-06 04:39:00,
2013-01-05 22:40:00,49.3,35.6,30.35,WSW,247,2.0,2.0,59,0.00,,,0.00,WUHU21623XXSP,2013-01-06 04:40:00,
2013-01-05 22:43:00,49.3,35.6,30.34,WSW,247,1.0,2.0,59,0.00,,,0.00,WUHU21623XXSP,2013-01-06 04:43:00,
2013-01-05 22:44:00,49.3,35.6,30.35,WSW,247,0.0,2.0,59,0.00,,,0.00,WUHU21623XXSP,2013-01-06 04:44:00,
2013-01-05 22:45:00,49.3,35.6,30.35,WSW,247,0.0,2.0,59,0.00,,,0.00,WUHU21623XXSP,2013-01-06 04:45:00,
2013-01-05 22:48:00,49.3,35.6,30.35,WSW,247,0.0,2.0,59,0.00,,,0.00,WUHU21623XXSP,2013-01-06 04:48:00,
2013-01-05 22:49:00,49.3,35.6,30.35,West,270,2.0,2.0,59,0.00,,,0.00,WUHU21623XXSP,2013-01-06 04:49:00,
2013-01-05 22:51:00,49.3,35.6,30.35,West,270,2.0,2.0,59,0.00,,,0.00,WUHU21623XXSP,2013-01-06 04:51:00,
2013-01-05 22:53:00,49.1,35.4,30.35,West,270,0.0,2.0,59,0.00,,,0.00,WUHU21623XXSP,2013-01-06 04:53:00,
2013-01-05 22:54:00,49.1,35.4,30.35,West,270,0.0,2.0,59,0.00,,,0.00,WUHU21623XXSP,2013-01-06 04:54:00,
2013-01-05 22:55:00,49.1,35.4,30.35,WSW,247,0.0,2.0,59,0.00,,,0.00,WUHU21623XXSP,2013-01-06 04:55:00,
2013-01-05 22:56:00,49.1,35.4,30.35,WSW,247,0.0,2.0,59,0.00,,,0.00,WUHU21623XXSP,2013-01-06 04:56:00,
2013-01-05 22:58:00,49.1,35.4,30.35,WSW,247,0.0,2.0,59,0.00,,,0.00,WUHU21623XXSP,2013-01-06 04:58:00,
2013-01-05 22:59:00,49.1,35.4,30.35,WSW,247,0.0,0.0,59,0.00,,,0.00,WUHU21623XXSP,2013-01-06 04:59:00,
2013-01-05 23:00:00,49.1,35.4,30.35,WSW,247,0.0,0.0,59,0.00,,,0.00,WUHU21623XXSP,2013-01-06 05:00:00,
2013-01-05 23:03:00,49.1,35.4,30.35,WSW,247,0.0,0.0,59,0.00,,,0.00,WUHU21623XXSP,2013-01-06 05:03:00,
2013-01-05 23:05:00,49.1,35.4,30.35,West,270,0.0,0.0,59,0.00,,,0.00,WUHU21623XXSP,2013-01-06 05:05:00,
2013-01-05 23:07:00,49.1,35.4,30.35,West,270,0.0,0.0,59,0.00,,,0.00,WUHU21623XXSP,2013-01-06 05:07:00,
2013-01-05 23:10:00,48.9,35.2,30.35,WSW,247,0.0,0.0,59,0.00,,,0.00,WUHU21623XXSP,2013-01-06 05:10:00,
2013-01-05 23:12:00,48.9,35.2,30.35,WSW,247,0.0,0.0,59,0.00,,,0.00,WUHU21623XXSP,2013-01-06 05:12:00,
2013-01-05 23:15:00,48.9,35.2,30.35,WSW,247,0.0,0.0,59,0.00,,,0.00,WUHU21623XXSP,2013-01-06 05:15:00,
2013-01-05 23:16:00,48.9,35.2,30.35,WSW,247,0.0,0.0,59,0.00,,,0.00,WUHU21623XXSP,2013-01-06 05:16:00,
2013-01-05 23:18:00,48.9,35.2,30.35,WSW,247,0.0,0.0,59,0.00,,,0.00,WUHU21623XXSP,2013-01-06 05:18:00,
2013-01-05 23:20:00,48.9,35.2,30.36,ESE,112,0.0,0.0,59,0.00,,,0.00,WUHU21623XXSP,2013-01-06 05:20:00,
2013-01-05 23:21:00,48.9,35.2,30.36,ESE,112,0.0,0.0,59,0.00,,,0.00,WUHU21623XXSP,2013-01-06 05:21:00,
2013-01-05 23:23:00,48.9,35.2,30.36,ESE,112,2.0,2.0,59,0.00,,,0.00,WUHU21623XXSP,2013-01-06 05:23:00,
2013-01-05 23:25:00,48.9,35.2,30.36,ESE,112,3.0,3.0,59,0.00,,,0.00,WUHU21623XXSP,2013-01-06 05:25:00,
2013-01-05 23:26:00,48.9,35.2,30.36,ESE,112,3.0,3.0,59,0.00,,,0.00,WUHU21623XXSP,2013-01-06 05:26:00,
2013-01-05 23:28:00,48.9,35.2,30.36,ESE,109,2.0,3.0,59,0.00,,,0.00,WUHU21623XXSP,2013-01-06 05:28:00,
2013-01-05 23:30:00,48.9,35.2,30.36,ESE,115,2.0,3.0,59,0.00,,,0.00,WUHU21623XXSP,2013-01-06 05:30:00,
2013-01-05 23:31:00,48.9,35.2,30.36,ESE,112,2.0,3.0,59,0.00,,,0.00,WUHU21623XXSP,2013-01-06 05:31:00,
2013-01-05 23:33:00,48.7,35.1,30.36,ESE,112,2.0,3.0,59,0.00,,,0.00,WUHU21623XXSP,2013-01-06 05:33:00,
2013-01-05 23:35:00,48.7,35.1,30.36,ESE,112,2.0,3.0,59,0.00,,,0.00,WUHU21623XXSP,2013-01-06 05:35:00,
2013-01-05 23:36:00,48.7,35.1,30.36,ESE,112,2.0,3.0,59,0.00,,,0.00,WUHU21623XXSP,2013-01-06 05:36:00,
2013-01-05 23:38:00,48.7,35.1,30.37,ESE,116,2.0,3.0,59,0.00,,,0.00,WUHU21623XXSP,2013-01-06 05:38:00,
2013-01-05 23:40:00,48.7,35.1,30.36,ESE,112,2.0,3.0,59,0.00,,,0.00,WUHU21623XXSP,2013-01-06 05:40:00,
2013-01-05 23:41:00,48.7,35.1,30.36,ESE,112,2.0,3.0,59,0.00,,,0.00,WUHU21623XXSP,2013-01-06 05:41:00,
2013-01-05 23:43:00,48.7,35.1,30.37,ESE,112,2.0,3.0,59,0.00,,,0.00,WUHU21623XXSP,2013-01-06 05:43:00,
2013-01-05 23:45:00,48.7,35.1,30.37,ESE,112,1.0,2.0,59,0.00,,,0.00,WUHU21623XXSP,2013-01-06 05:45:00,
2013-01-05 23:46:00,48.7,35.1,30.37,ESE,112,1.0,2.0,59,0.00,,,0.00,WUHU21623XXSP,2013-01-06 05:46:00,
2013-01-05 23:48:00,48.7,35.1,30.37,ESE,112,2.0,2.0,59,0.00,,,0.00,WUHU21623XXSP,2013-01-06 05:48:00,
2013-01-05 23:51:00,48.7,35.1,30.37,ESE,112,2.0,2.0,59,0.00,,,0.00,WUHU21623XXSP,2013-01-06 05:51:00,
2013-01-05 23:52:00,48.6,34.9,30.37,ESE,112,2.0,2.0,59,0.00,,,0.00,WUHU21623XXSP,2013-01-06 05:52:00,
2013-01-05 23:53:00,48.6,34.9,30.37,ESE,112,2.0,2.0,59,0.00,,,0.00,WUHU21623XXSP,2013-01-06 05:53:00,
2013-01-05 23:54:00,48.6,34.9,30.37,ESE,112,0.0,2.0,59,0.00,,,0.00,WUHU21623XXSP,2013-01-06 05:54:00,
2013-01-05 23:56:00,48.6,34.9,30.37,ESE,112,2.0,2.0,59,0.00,,,0.00,WUHU21623XXSP,2013-01-06 05:56:00,
2013-01-05 23:57:00,48.6,34.9,30.37,ESE,112,2.0,2.0,59,0.00,,,0.00,WUHU21623XXSP,2013-01-06 05:57:00,
2013-01-05 23:58:00,48.6,34.9,30.37,ESE,112,2.0,2.0,59,0.00,,,0.00,WUHU21623XXSP,2013-01-06 05:58:00,